Darstellungsparameter: Aktuell verwendete Einstellungen:
Skalierung der Graphiken ... ?
xyx+y,   Skalierungsfaktor:      Skalierung: Modus: x, Faktor: 1
Darstellungszeitraum ... ?
Vom - - bis: - -   Zeitraum: 15.01.2011 - 28.01.2011
Min/Max/Avg-Anzeige ... ?
Zeige MMA aktuell
Zeige MMA Monat
Zeige MMA alles
Zeige --A aktuell
Zeige --A Monat
Zeige --A alles
Keine MMA-Anzeige
MMA:
Average (ber die Originaldaten)
MMA-Basis: 15.01.2011 - 28.01.2011
Quicknavigation für Darstellung... ?
Tage:      1T, 2T, 3T, 5T -1T -2T -3T -5T +1T +2T +3T +5T
Wochen: 1W, 2W, 3W -1W -2W -3W +1W +2W +3W
Monate: 1M, 3M, 6M -1M -3M -6M +1M +3M +6M
Jahre:    1J, 3J, 5J, 10J -1J -3J -5J -10J +1J +3J +5J +10J
Nutze für die Darstellung ... ?
Originaldaten oder Mittelwerte auf ...
Stundenbasis Tagesbasis Wochenbasis
Monatsbasis Jahresbasis      Datenbasis: Original-Daten
Darstellen als:
Statistik (Auto) Statistik J:M      Darstellung:
Zur Graphik,    zurück zur Übersicht aller Sensoren.
 
Tabellarische Datenbersicht: ?
 
Sensor: Nr:Datum:Temp:Abs-Feuchte:Windchill:Wind:
Aussen-T/F 1 15-01-2011 00:04:03 8.3 C 6.74 g/m*3 8.3 C 0 km/h
2 15-01-2011 00:16:03 8 C 6.7 g/m*3 8 C 0 km/h
3 15-01-2011 00:28:03 8.5 C 6.74 g/m*3 8.5 C 0 km/h
4 15-01-2011 00:40:03 8.1 C 6.49 g/m*3 8.1 C 0 km/h
5 15-01-2011 00:52:03 8.2 C 6.53 g/m*3 8.2 C 0 km/h
6 15-01-2011 01:04:03 8.1 C 6.49 g/m*3 8.1 C 0 km/h
7 15-01-2011 01:16:03 8.3 C 6.49 g/m*3 8.3 C 0 km/h
8 15-01-2011 01:28:03 8.5 C 6.32 g/m*3 8.5 C 0 km/h
9 15-01-2011 01:40:03 8.2 C 6.36 g/m*3 8.2 C 0 km/h
10 15-01-2011 01:52:03 8 C 6.37 g/m*3 8 C 0 km/h
11 15-01-2011 02:04:04 8.4 C 6.45 g/m*3 8.4 C 0 km/h
12 15-01-2011 02:16:04 8.3 C 6.41 g/m*3 8.3 C 0 km/h
13 15-01-2011 02:28:04 8.1 C 6.32 g/m*3 8.1 C 0 km/h
14 15-01-2011 02:40:04 7.6 C 6.36 g/m*3 7.6 C 0 km/h
15 15-01-2011 02:52:04 7.8 C 6.61 g/m*3 7.8 C 0 km/h
16 15-01-2011 03:04:04 8 C 6.45 g/m*3 8 C 0 km/h
17 15-01-2011 03:16:04 8.1 C 6.41 g/m*3 8.1 C 0 km/h
18 15-01-2011 03:28:04 8.4 C 6.62 g/m*3 8.4 C 0 km/h
19 15-01-2011 03:40:04 8.1 C 6.41 g/m*3 8.1 C 0 km/h
20 15-01-2011 03:52:04 8 C 6.45 g/m*3 8 C 0 km/h
21 15-01-2011 04:04:04 7.8 C 6.45 g/m*3 7.8 C 0 km/h
22 15-01-2011 04:16:04 8 C 6.53 g/m*3 8 C 0 km/h
23 15-01-2011 04:28:04 8.2 C 6.36 g/m*3 8.2 C 0 km/h
24 15-01-2011 04:40:04 8.7 C 6.4 g/m*3 8.7 C 0 km/h
25 15-01-2011 04:52:04 8.4 C 6.28 g/m*3 8.4 C 0 km/h
Sensor: Nr:Datum:Temp:Abs-Feuchte:Windchill:Wind:
Aussen-T/F 26 15-01-2011 05:04:04 8.3 C 6.15 g/m*3 8.3 C 0 km/h
27 15-01-2011 05:16:04 8.1 C 6.07 g/m*3 8.1 C 0 km/h
28 15-01-2011 05:28:04 7.7 C 6.24 g/m*3 7.7 C 0 km/h
29 15-01-2011 05:40:04 8 C 6.12 g/m*3 8 C 0 km/h
30 15-01-2011 05:52:04 7.7 C 6.08 g/m*3 7.7 C 0 km/h
31 15-01-2011 06:04:05 7.5 C 6.24 g/m*3 7.5 C 0 km/h
32 15-01-2011 06:16:05 6.9 C 6.24 g/m*3 6.9 C 0 km/h
33 15-01-2011 06:28:05 7.3 C 6.24 g/m*3 7.3 C 0 km/h
34 15-01-2011 06:40:05 7.6 C 6.2 g/m*3 7.6 C 0 km/h
35 15-01-2011 06:52:05 7.9 C 6.16 g/m*3 7.9 C 0 km/h
36 15-01-2011 07:04:05 7.1 C 6.01 g/m*3 7.1 C 0 km/h
37 15-01-2011 07:16:05 7.3 C 6.24 g/m*3 7.3 C 0 km/h
38 15-01-2011 07:28:05 7 C 6.2 g/m*3 7 C 0 km/h
39 15-01-2011 07:40:05 7 C 6.12 g/m*3 7 C 0 km/h
40 15-01-2011 07:52:05 7 C 6.12 g/m*3 7 C 0 km/h
41 15-01-2011 08:04:02 7 C 6.12 g/m*3 7 C 0 km/h
42 15-01-2011 08:16:03 7.1 C 6.08 g/m*3 7.1 C 0 km/h
43 15-01-2011 08:28:03 8 C 6.28 g/m*3 8 C 0 km/h
44 15-01-2011 08:40:02 8 C 6.04 g/m*3 8 C 0 km/h
45 15-01-2011 08:52:03 8.3 C 6.15 g/m*3 8.3 C 0 km/h
46 15-01-2011 09:04:02 8.2 C 5.95 g/m*3 8.2 C 0 km/h
47 15-01-2011 09:16:02 7.9 C 5.91 g/m*3 7.9 C 0 km/h
48 15-01-2011 09:28:02 8.2 C 6.03 g/m*3 8.2 C 0 km/h
49 15-01-2011 09:40:02 8.5 C 5.98 g/m*3 8.5 C 0 km/h
50 15-01-2011 09:52:02 8.7 C 6.05 g/m*3 8.7 C 0 km/h
Sensor: Nr:Datum:Temp:Abs-Feuchte:Windchill:Wind:
Aussen-T/F 51 15-01-2011 10:04:01 9.1 C 5.94 g/m*3 9.1 C 0 km/h
52 15-01-2011 10:16:02 8.9 C 5.96 g/m*3 8.9 C 0 km/h
53 15-01-2011 10:28:02 9 C 5.91 g/m*3 9 C 0 km/h
54 15-01-2011 10:40:02 9.1 C 5.86 g/m*3 9.1 C 0 km/h
55 15-01-2011 10:52:02 9.2 C 5.89 g/m*3 9.2 C 0 km/h
56 15-01-2011 11:04:02 9.4 C 5.97 g/m*3 9.4 C 0 km/h
57 15-01-2011 11:16:02 9.5 C 6.01 g/m*3 9.5 C 0 km/h
58 15-01-2011 11:28:02 10.1 C 5.96 g/m*3 10.1 C 0 km/h
59 15-01-2011 11:40:02 10.1 C 5.77 g/m*3 10.1 C 0 km/h
60 15-01-2011 11:52:02 10.2 C 5.71 g/m*3 10.2 C 0 km/h
61 15-01-2011 12:04:02 10.2 C 5.8 g/m*3 10.2 C 0 km/h
62 15-01-2011 12:16:03 10.2 C 5.71 g/m*3 10.2 C 0 km/h
63 15-01-2011 12:28:03 10.3 C 5.75 g/m*3 10.3 C 0 km/h
64 15-01-2011 12:40:02 10.2 C 5.71 g/m*3 10.2 C 0 km/h
65 15-01-2011 12:52:01 10.1 C 5.67 g/m*3 10.1 C 0 km/h
66 15-01-2011 13:04:01 10.1 C 5.58 g/m*3 10.1 C 0 km/h
67 15-01-2011 13:16:02 10 C 5.64 g/m*3 10 C 0 km/h
68 15-01-2011 13:28:02 10 C 5.54 g/m*3 10 C 0 km/h
69 15-01-2011 13:40:01 10 C 5.54 g/m*3 10 C 0 km/h
70 15-01-2011 13:52:01 10.1 C 5.58 g/m*3 10.1 C 0 km/h
71 15-01-2011 14:04:01 10.2 C 5.61 g/m*3 10.2 C 0 km/h
72 15-01-2011 14:16:02 10 C 5.54 g/m*3 10 C 0 km/h
73 15-01-2011 14:28:02 10 C 5.54 g/m*3 10 C 0 km/h
74 15-01-2011 14:40:01 10 C 5.54 g/m*3 10 C 0 km/h
75 15-01-2011 14:52:01 10 C 5.45 g/m*3 10 C 0 km/h
Sensor: Nr:Datum:Temp:Abs-Feuchte:Windchill:Wind:
Aussen-T/F 76 15-01-2011 15:04:01 9.9 C 5.42 g/m*3 9.9 C 0 km/h
77 15-01-2011 15:16:02 9.8 C 5.57 g/m*3 9.8 C 0 km/h
78 15-01-2011 15:28:02 9.6 C 5.5 g/m*3 9.6 C 0 km/h
79 15-01-2011 15:40:01 9.7 C 5.53 g/m*3 9.7 C 0 km/h
80 15-01-2011 15:52:02 9.1 C 5.59 g/m*3 9.1 C 0 km/h
81 15-01-2011 16:04:02 8.8 C 5.83 g/m*3 8.8 C 0 km/h
82 15-01-2011 16:16:03 8.7 C 5.71 g/m*3 8.7 C 0 km/h
83 15-01-2011 16:28:03 8.9 C 5.69 g/m*3 8.9 C 0 km/h
84 15-01-2011 16:40:02 8.9 C 5.69 g/m*3 8.9 C 0 km/h
85 15-01-2011 16:52:02 9.2 C 5.63 g/m*3 9.2 C 0 km/h
86 15-01-2011 17:04:01 8.7 C 5.79 g/m*3 8.7 C 0 km/h
87 15-01-2011 17:16:01 9.1 C 5.59 g/m*3 9.1 C 0 km/h
88 15-01-2011 17:28:01 9.2 C 5.54 g/m*3 9.2 C 0 km/h
89 15-01-2011 17:40:02 9 C 5.64 g/m*3 9 C 0 km/h
90 15-01-2011 17:52:03 9.1 C 5.68 g/m*3 9.1 C 0 km/h
91 15-01-2011 18:04:03 9.2 C 5.71 g/m*3 9.2 C 0 km/h
92 15-01-2011 18:16:01 9.1 C 5.68 g/m*3 9.1 C 0 km/h
93 15-01-2011 18:28:01 9 C 5.82 g/m*3 9 C 0 km/h
94 15-01-2011 18:40:02 9 C 5.82 g/m*3 9 C 0 km/h
95 15-01-2011 18:52:02 8.6 C 5.84 g/m*3 8.6 C 0 km/h
96 15-01-2011 19:04:02 9.1 C 5.77 g/m*3 9.1 C 0 km/h
97 15-01-2011 19:16:02 9.3 C 5.66 g/m*3 9.3 C 0 km/h
98 15-01-2011 19:28:02 9.1 C 5.59 g/m*3 9.1 C 0 km/h
99 15-01-2011 19:40:02 9.3 C 5.75 g/m*3 9.3 C 0 km/h
100 15-01-2011 19:52:01 9.1 C 5.68 g/m*3 9.1 C 0 km/h
Sensor: Nr:Datum:Temp:Abs-Feuchte:Windchill:Wind:
Aussen-T/F 101 15-01-2011 20:04:01 9.4 C 5.7 g/m*3 9.4 C 0 km/h
102 15-01-2011 20:16:02 9.1 C 5.59 g/m*3 9.1 C 0 km/h
103 15-01-2011 20:28:02 8.6 C 5.67 g/m*3 8.6 C 0 km/h
104 15-01-2011 20:40:01 8.9 C 5.69 g/m*3 8.9 C 0 km/h
105 15-01-2011 20:52:01 8.6 C 5.76 g/m*3 8.6 C 0 km/h
106 15-01-2011 21:04:01 8.2 C 5.53 g/m*3 8.2 C 0 km/h
107 15-01-2011 21:16:02 8.1 C 5.57 g/m*3 8.1 C 0 km/h
108 15-01-2011 21:28:02 8 C 5.54 g/m*3 8 C 0 km/h
109 15-01-2011 21:40:01 7.8 C 5.71 g/m*3 7.8 C 0 km/h
110 15-01-2011 21:52:01 8.1 C 5.74 g/m*3 8.1 C 0 km/h
111 15-01-2011 22:04:01 8.3 C 5.82 g/m*3 8.3 C 0 km/h
112 15-01-2011 22:16:02 8.5 C 5.98 g/m*3 8.5 C 0 km/h
113 15-01-2011 22:28:02 8.9 C 5.96 g/m*3 8.9 C 0 km/h
114 15-01-2011 22:41:03 8.6 C 5.84 g/m*3 8.6 C 0 km/h
115 15-01-2011 22:53:03 8.7 C 5.88 g/m*3 8.7 C 0 km/h
116 15-01-2011 23:05:03 8.5 C 5.89 g/m*3 8.5 C 0 km/h
117 15-01-2011 23:17:03 8.2 C 5.86 g/m*3 8.2 C 0 km/h
118 15-01-2011 23:29:03 8.7 C 5.88 g/m*3 8.7 C 0 km/h
119 15-01-2011 23:41:03 8.8 C 5.92 g/m*3 8.8 C 0 km/h
120 15-01-2011 23:53:03 8.9 C 5.87 g/m*3 8.9 C 0 km/h
121 16-01-2011 00:05:03 8.7 C 5.97 g/m*3 8.7 C 0 km/h
122 16-01-2011 00:17:03 8.8 C 5.92 g/m*3 8.8 C 0 km/h
123 16-01-2011 00:29:03 9 C 5.82 g/m*3 9 C 0 km/h
124 16-01-2011 00:41:03 9 C 5.73 g/m*3 9 C 0 km/h
125 16-01-2011 00:53:04 9 C 5.73 g/m*3 9 C 0 km/h
Sensor: Nr:Datum:Temp:Abs-Feuchte:Windchill:Wind:
Aussen-T/F 126 16-01-2011 01:05:04 8.5 C 5.64 g/m*3 8.5 C 0 km/h
127 16-01-2011 01:17:04 8.6 C 5.76 g/m*3 8.6 C 0 km/h
128 16-01-2011 01:29:04 8 C 5.7 g/m*3 8 C 0 km/h
129 16-01-2011 01:41:04 8 C 5.7 g/m*3 8 C 0 km/h
130 16-01-2011 01:53:04 8.1 C 5.66 g/m*3 8.1 C 0 km/h
131 16-01-2011 02:05:04 8.1 C 5.66 g/m*3 8.1 C 0 km/h
132 16-01-2011 02:17:04 7.8 C 5.71 g/m*3 7.8 C 0 km/h
133 16-01-2011 02:29:04 7.8 C 5.79 g/m*3 7.8 C 0 km/h
134 16-01-2011 02:41:04 7.8 C 5.88 g/m*3 7.8 C 0 km/h
135 16-01-2011 02:53:04 8.3 C 5.82 g/m*3 8.3 C 0 km/h
136 16-01-2011 03:05:04 8.4 C 5.77 g/m*3 8.4 C 0 km/h
137 16-01-2011 03:17:04 8.3 C 5.65 g/m*3 8.3 C 0 km/h
138 16-01-2011 03:29:04 8.2 C 5.69 g/m*3 8.2 C 0 km/h
139 16-01-2011 03:41:04 7.8 C 5.71 g/m*3 7.8 C 0 km/h
140 16-01-2011 03:53:04 8 C 5.7 g/m*3 8 C 0 km/h
141 16-01-2011 04:05:04 7.9 C 5.75 g/m*3 7.9 C 0 km/h
142 16-01-2011 04:17:04 8.2 C 5.78 g/m*3 8.2 C 0 km/h
143 16-01-2011 04:29:04 8.5 C 5.72 g/m*3 8.5 C 0 km/h
144 16-01-2011 04:41:04 8.4 C 5.77 g/m*3 8.4 C 0 km/h
145 16-01-2011 04:53:05 8.1 C 5.74 g/m*3 8.1 C 0 km/h
146 16-01-2011 05:05:05 7.9 C 5.83 g/m*3 7.9 C 0 km/h
147 16-01-2011 05:17:05 7.3 C 5.85 g/m*3 7.3 C 0 km/h
148 16-01-2011 05:29:05 6.8 C 5.97 g/m*3 6.8 C 0 km/h
149 16-01-2011 05:41:05 7 C 6.12 g/m*3 7 C 0 km/h
150 16-01-2011 05:53:05 6.8 C 6.12 g/m*3 6.8 C 0 km/h
Sensor: Nr:Datum:Temp:Abs-Feuchte:Windchill:Wind:
Aussen-T/F 151 16-01-2011 06:05:05 7 C 6.2 g/m*3 7 C 0 km/h
152 16-01-2011 06:17:05 7.1 C 6.16 g/m*3 7.1 C 0 km/h
153 16-01-2011 06:29:05 7.5 C 6.16 g/m*3 7.5 C 0 km/h
154 16-01-2011 06:41:05 7 C 5.89 g/m*3 7 C 0 km/h
155 16-01-2011 06:53:05 6.7 C 6 g/m*3 6.7 C 0 km/h
156 16-01-2011 07:05:05 7.5 C 6.16 g/m*3 7.5 C 0 km/h
157 16-01-2011 07:17:05 7.8 C 6.12 g/m*3 7.8 C 0 km/h
158 16-01-2011 07:29:05 7.9 C 6.08 g/m*3 7.9 C 0 km/h
159 16-01-2011 07:41:05 7.8 C 6.04 g/m*3 7.8 C 0 km/h
160 16-01-2011 07:53:05 8.4 C 5.94 g/m*3 8.4 C 0 km/h
161 16-01-2011 08:05:05 8.2 C 5.86 g/m*3 8.2 C 0 km/h
162 16-01-2011 08:17:05 8.3 C 5.9 g/m*3 8.3 C 0 km/h
163 16-01-2011 08:29:05 8.3 C 5.82 g/m*3 8.3 C 0 km/h
164 16-01-2011 08:41:05 8.1 C 5.82 g/m*3 8.1 C 0 km/h
165 16-01-2011 08:53:05 8.2 C 5.95 g/m*3 8.2 C 0 km/h
166 16-01-2011 09:05:02 8.3 C 5.98 g/m*3 8.3 C 0 km/h
167 16-01-2011 09:17:02 8 C 5.87 g/m*3 8 C 0 km/h
168 16-01-2011 09:29:02 8 C 5.87 g/m*3 8 C 0 km/h
169 16-01-2011 09:41:02 8 C 5.87 g/m*3 8 C 0 km/h
170 16-01-2011 09:53:01 7.9 C 5.91 g/m*3 7.9 C 0 km/h
171 16-01-2011 10:05:02 7.9 C 5.91 g/m*3 7.9 C 0 km/h
172 16-01-2011 10:17:01 7.9 C 5.91 g/m*3 7.9 C 0 km/h
173 16-01-2011 10:29:01 7.9 C 5.91 g/m*3 7.9 C 0 km/h
174 16-01-2011 10:41:01 8 C 5.95 g/m*3 8 C 0 km/h
175 16-01-2011 10:53:01 8.2 C 5.86 g/m*3 8.2 C 0 km/h
Sensor: Nr:Datum:Temp:Abs-Feuchte:Windchill:Wind:
Aussen-T/F 176 16-01-2011 11:05:02 8.1 C 5.91 g/m*3 8.1 C 0 km/h
177 16-01-2011 11:17:01 8.1 C 5.91 g/m*3 8.1 C 0 km/h
178 16-01-2011 11:29:01 8.3 C 5.98 g/m*3 8.3 C 0 km/h
179 16-01-2011 11:41:02 8.6 C 6.1 g/m*3 8.6 C 0 km/h
180 16-01-2011 11:53:01 8.7 C 6.05 g/m*3 8.7 C 0 km/h
181 16-01-2011 12:05:02 8.6 C 6.1 g/m*3 8.6 C 0 km/h
182 16-01-2011 12:17:01 8.6 C 6.19 g/m*3 8.6 C 0 km/h
183 16-01-2011 12:29:01 8.6 C 6.19 g/m*3 8.6 C 0 km/h
184 16-01-2011 12:41:02 8.7 C 6.14 g/m*3 8.7 C 0 km/h
185 16-01-2011 12:53:01 8.7 C 6.14 g/m*3 8.7 C 0 km/h
186 16-01-2011 13:05:02 8.9 C 6.22 g/m*3 8.9 C 0 km/h
187 16-01-2011 13:17:02 8.9 C 6.22 g/m*3 8.9 C 0 km/h
188 16-01-2011 13:29:02 8.8 C 6.18 g/m*3 8.8 C 0 km/h
189 16-01-2011 13:41:01 8.7 C 6.14 g/m*3 8.7 C 0 km/h
190 16-01-2011 13:53:02 8.8 C 6.18 g/m*3 8.8 C 0 km/h
191 16-01-2011 14:05:01 8.6 C 6.1 g/m*3 8.6 C 0 km/h
192 16-01-2011 14:17:02 7.8 C 6.04 g/m*3 7.8 C 0 km/h
193 16-01-2011 14:29:02 7.5 C 6.24 g/m*3 7.5 C 0 km/h
194 16-01-2011 14:41:01 8.7 C 6.57 g/m*3 8.7 C 0 km/h
195 16-01-2011 14:53:02 9.7 C 6.36 g/m*3 9.7 C 0 km/h
196 16-01-2011 15:05:01 9.9 C 6.26 g/m*3 9.9 C 0 km/h
197 16-01-2011 15:17:02 10 C 6.11 g/m*3 10 C 0 km/h
198 16-01-2011 15:29:02 10 C 6.11 g/m*3 10 C 0 km/h
199 16-01-2011 15:41:01 9.9 C 6.26 g/m*3 9.9 C 0 km/h
200 16-01-2011 15:53:02 9.8 C 6.4 g/m*3 9.8 C 0 km/h
Sensor: Nr:Datum:Temp:Abs-Feuchte:Windchill:Wind:
Aussen-T/F 201 16-01-2011 16:05:02 9.3 C 6.38 g/m*3 9.3 C 0 km/h
202 16-01-2011 16:17:02 8.7 C 6.4 g/m*3 8.7 C 0 km/h
203 16-01-2011 16:29:02 8 C 6.28 g/m*3 8 C 0 km/h
204 16-01-2011 16:41:02 7.4 C 6.36 g/m*3 7.4 C 0 km/h
205 16-01-2011 16:53:02 6.8 C 6.27 g/m*3 6.8 C 0 km/h
206 16-01-2011 17:05:01 6.3 C 6.14 g/m*3 6.3 C 0 km/h
207 16-01-2011 17:17:02 6.2 C 6.18 g/m*3 6.2 C 0 km/h
208 16-01-2011 17:29:02 6 C 6.17 g/m*3 6 C 0 km/h
209 16-01-2011 17:41:02 5.6 C 6.08 g/m*3 5.6 C 0 km/h
210 16-01-2011 17:53:02 5.5 C 6.11 g/m*3 5.5 C 0 km/h
211 16-01-2011 18:05:03 5.1 C 5.95 g/m*3 5.1 C 0 km/h
212 16-01-2011 18:17:02 5 C 5.91 g/m*3 5 C 0 km/h
213 16-01-2011 18:29:02 4.8 C 5.9 g/m*3 4.8 C 0 km/h
214 16-01-2011 18:41:02 4.7 C 5.93 g/m*3 4.7 C 0 km/h
215 16-01-2011 18:53:02 4.6 C 5.89 g/m*3 4.6 C 0 km/h
216 16-01-2011 19:05:01 4.5 C 5.85 g/m*3 4.5 C 0 km/h
217 16-01-2011 19:17:02 4.4 C 5.81 g/m*3 4.4 C 0 km/h
218 16-01-2011 19:29:03 4.4 C 5.81 g/m*3 4.4 C 0 km/h
219 16-01-2011 19:41:01 3.9 C 5.68 g/m*3 3.9 C 0 km/h
220 16-01-2011 19:53:02 3.9 C 5.68 g/m*3 3.9 C 0 km/h
221 16-01-2011 20:05:02 3.4 C 5.5 g/m*3 3.4 C 0 km/h
222 16-01-2011 20:17:02 3.7 C 5.61 g/m*3 3.7 C 0 km/h
223 16-01-2011 20:29:02 3.5 C 5.53 g/m*3 3.5 C 0 km/h
224 16-01-2011 20:41:03 2.9 C 5.37 g/m*3 2.9 C 0 km/h
225 16-01-2011 20:53:02 2.8 C 5.34 g/m*3 2.8 C 0 km/h
Sensor: Nr:Datum:Temp:Abs-Feuchte:Windchill:Wind:
Aussen-T/F 226 16-01-2011 21:05:01 2.7 C 5.3 g/m*3 2.7 C 0 km/h
227 16-01-2011 21:17:02 2.2 C 5.13 g/m*3 2.2 C 0 km/h
228 16-01-2011 21:29:02 2.7 C 5.3 g/m*3 2.7 C 0 km/h
229 16-01-2011 21:41:02 2.2 C 5.13 g/m*3 2.2 C 0 km/h
230 16-01-2011 21:53:02 2.2 C 5.13 g/m*3 2.2 C 0 km/h
231 16-01-2011 22:06:04 1.8 C 5.04 g/m*3 1.8 C 0 km/h
232 16-01-2011 22:18:04 2.8 C 5.4 g/m*3 2.8 C 0 km/h
233 16-01-2011 22:30:04 1.9 C 5.08 g/m*3 1.9 C 0 km/h
234 16-01-2011 22:42:04 2.1 C 5.09 g/m*3 2.1 C 0 km/h
235 16-01-2011 22:54:04 2.2 C 5.18 g/m*3 2.2 C 0 km/h
236 16-01-2011 23:06:04 2.1 C 5.15 g/m*3 2.1 C 0 km/h
237 16-01-2011 23:18:04 1.5 C 4.94 g/m*3 1.5 C 0 km/h
238 16-01-2011 23:30:04 1.5 C 4.94 g/m*3 1.5 C 0 km/h
239 16-01-2011 23:42:04 1.1 C 4.81 g/m*3 1.1 C 0 km/h
240 16-01-2011 23:54:04 0.6 C 4.65 g/m*3 0.6 C 0 km/h
241 17-01-2011 00:06:04 1.2 C 4.84 g/m*3 1.2 C 0 km/h
242 17-01-2011 00:18:04 1.6 C 5.03 g/m*3 1.6 C 0 km/h
243 17-01-2011 00:30:04 1.4 C 4.91 g/m*3 1.4 C 0 km/h
244 17-01-2011 00:42:04 1.4 C 4.91 g/m*3 1.4 C 0 km/h
245 17-01-2011 00:54:04 1.4 C 4.96 g/m*3 1.4 C 0 km/h
246 17-01-2011 01:06:04 0.9 C 4.79 g/m*3 0.9 C 0 km/h
247 17-01-2011 01:18:04 1.2 C 4.89 g/m*3 1.2 C 0 km/h
248 17-01-2011 01:30:04 1.5 C 4.99 g/m*3 1.5 C 0 km/h
249 17-01-2011 01:42:04 1.3 C 4.93 g/m*3 1.3 C 0 km/h
250 17-01-2011 01:54:04 1 C 4.78 g/m*3 1 C 0 km/h
Sensor: Nr:Datum:Temp:Abs-Feuchte:Windchill:Wind:
Aussen-T/F 251 17-01-2011 02:06:04 0.7 C 4.73 g/m*3 0.7 C 0 km/h
252 17-01-2011 02:18:05 1.5 C 4.99 g/m*3 1.5 C 0 km/h
253 17-01-2011 02:30:05 1.3 C 4.93 g/m*3 1.3 C 0 km/h
254 17-01-2011 02:42:05 1 C 4.83 g/m*3 1 C 0 km/h
255 17-01-2011 02:54:05 1.1 C 4.86 g/m*3 1.1 C 0 km/h
256 17-01-2011 03:06:05 1.4 C 4.96 g/m*3 1.4 C 0 km/h
257 17-01-2011 03:18:05 1.5 C 4.99 g/m*3 1.5 C 0 km/h
258 17-01-2011 03:30:05 0.9 C 4.85 g/m*3 0.9 C 0 km/h
259 17-01-2011 03:42:05 0.9 C 4.85 g/m*3 0.9 C 0 km/h
260 17-01-2011 03:54:05 0.5 C 4.71 g/m*3 0.5 C 0 km/h
261 17-01-2011 04:06:05 0.2 C 4.57 g/m*3 0.2 C 0 km/h
262 17-01-2011 04:18:05 -0.1 C 4.47 g/m*3 -0.1 C 0 km/h
263 17-01-2011 04:30:05 -0.3 C 4.41 g/m*3 -0.3 C 0 km/h
264 17-01-2011 04:42:05 0.1 C 4.54 g/m*3 0.1 C 0 km/h
265 17-01-2011 04:54:05 -0.1 C 4.47 g/m*3 -0.1 C 0 km/h
266 17-01-2011 05:06:05 0.6 C 4.75 g/m*3 0.6 C 0 km/h
267 17-01-2011 05:18:05 0.5 C 4.71 g/m*3 0.5 C 0 km/h
268 17-01-2011 05:30:05 -0.2 C 4.44 g/m*3 -0.2 C 0 km/h
269 17-01-2011 05:42:05 -0.5 C 4.35 g/m*3 -0.5 C 0 km/h
270 17-01-2011 05:54:05 0 C 4.51 g/m*3 0 C 0 km/h
271 17-01-2011 06:06:05 -0.3 C 4.41 g/m*3 -0.3 C 0 km/h
272 17-01-2011 06:18:06 -0.3 C 4.41 g/m*3 -0.3 C 0 km/h
273 17-01-2011 06:30:06 -0.6 C 4.32 g/m*3 -0.6 C 0 km/h
274 17-01-2011 06:42:06 -1 C 4.2 g/m*3 -1 C 0 km/h
275 17-01-2011 06:54:03 -0.9 C 4.23 g/m*3 -0.9 C 0 km/h
Sensor: Nr:Datum:Temp:Abs-Feuchte:Windchill:Wind:
Aussen-T/F 276 17-01-2011 07:06:02 -0.7 C 4.29 g/m*3 -0.7 C 0 km/h
277 17-01-2011 07:18:02 0.2 C 4.62 g/m*3 0.2 C 0 km/h
278 17-01-2011 07:30:02 0 C 4.55 g/m*3 0 C 0 km/h
279 17-01-2011 07:42:02 -0.5 C 4.35 g/m*3 -0.5 C 0 km/h
280 17-01-2011 07:54:02 -1 C 4.2 g/m*3 -1 C 0 km/h
281 17-01-2011 08:06:02 -1 C 4.2 g/m*3 -1 C 0 km/h
282 17-01-2011 08:18:02 -1 C 4.2 g/m*3 -1 C 0 km/h
283 17-01-2011 08:30:02 -1.1 C 4.17 g/m*3 -1.1 C 0 km/h
284 17-01-2011 08:42:03 -0.2 C 4.49 g/m*3 -0.2 C 0 km/h
285 17-01-2011 08:54:01 0 C 4.55 g/m*3 0 C 0 km/h
286 17-01-2011 09:06:02 0.4 C 4.68 g/m*3 0.4 C 0 km/h
287 17-01-2011 09:18:01 0.7 C 4.78 g/m*3 0.7 C 0 km/h
288 17-01-2011 09:30:01 0.8 C 4.81 g/m*3 0.8 C 0 km/h
289 17-01-2011 09:42:02 0.9 C 4.85 g/m*3 0.9 C 0 km/h
290 17-01-2011 09:54:01 0.8 C 4.81 g/m*3 0.8 C 0 km/h
291 17-01-2011 10:06:02 0.7 C 4.78 g/m*3 0.7 C 0 km/h
292 17-01-2011 10:18:02 0.7 C 4.78 g/m*3 0.7 C 0 km/h
293 17-01-2011 10:30:02 0.4 C 4.68 g/m*3 0.4 C 0 km/h
294 17-01-2011 10:42:01 0.6 C 4.75 g/m*3 0.6 C 0 km/h
295 17-01-2011 10:54:02 1 C 4.88 g/m*3 1 C 0 km/h
296 17-01-2011 11:06:01 1 C 4.88 g/m*3 1 C 0 km/h
297 17-01-2011 11:18:02 1 C 4.88 g/m*3 1 C 0 km/h
298 17-01-2011 11:30:02 1.7 C 5.12 g/m*3 1.7 C 0 km/h
299 17-01-2011 11:42:01 2.9 C 5.55 g/m*3 2.9 C 0 km/h
300 17-01-2011 11:54:02 4.1 C 5.95 g/m*3 4.1 C 0 km/h
Sensor: Nr:Datum:Temp:Abs-Feuchte:Windchill:Wind:
Aussen-T/F 301 17-01-2011 12:06:02 5 C 6.32 g/m*3 5 C 0 km/h
302 17-01-2011 12:18:02 4.9 C 6.35 g/m*3 4.9 C 0 km/h
303 17-01-2011 12:30:02 5.4 C 6.49 g/m*3 5.4 C 0 km/h
304 17-01-2011 12:42:03 5.8 C 6.66 g/m*3 5.8 C 0 km/h
305 17-01-2011 12:54:02 6 C 6.68 g/m*3 6 C 0 km/h
306 17-01-2011 13:06:02 6.3 C 6.81 g/m*3 6.3 C 0 km/h
307 17-01-2011 13:18:01 6.3 C 6.74 g/m*3 6.3 C 0 km/h
308 17-01-2011 13:30:01 6 C 6.46 g/m*3 6 C 0 km/h
309 17-01-2011 13:42:02 5.8 C 6.38 g/m*3 5.8 C 0 km/h
310 17-01-2011 13:54:02 5.9 C 6.35 g/m*3 5.9 C 0 km/h
311 17-01-2011 14:06:02 6 C 6.17 g/m*3 6 C 0 km/h
312 17-01-2011 14:18:02 6.3 C 6.22 g/m*3 6.3 C 0 km/h
313 17-01-2011 14:30:02 6.5 C 6.15 g/m*3 6.5 C 0 km/h
314 17-01-2011 14:42:02 6.6 C 5.96 g/m*3 6.6 C 0 km/h
315 17-01-2011 14:54:02 6.6 C 5.89 g/m*3 6.6 C 0 km/h
316 17-01-2011 15:06:02 6.7 C 5.85 g/m*3 6.7 C 0 km/h
317 17-01-2011 15:18:02 6.5 C 5.92 g/m*3 6.5 C 0 km/h
318 17-01-2011 15:30:02 6.2 C 5.88 g/m*3 6.2 C 0 km/h
319 17-01-2011 15:42:02 5.8 C 5.87 g/m*3 5.8 C 0 km/h
320 17-01-2011 15:54:02 5.7 C 5.98 g/m*3 5.7 C 0 km/h
321 17-01-2011 16:06:03 6.2 C 6.1 g/m*3 6.2 C 0 km/h
322 17-01-2011 16:18:02 5.6 C 5.94 g/m*3 5.6 C 0 km/h
323 17-01-2011 16:30:02 6.1 C 6.06 g/m*3 6.1 C 0 km/h
324 17-01-2011 16:42:02 6.3 C 5.85 g/m*3 6.3 C 0 km/h
325 17-01-2011 16:54:01 6.7 C 5.85 g/m*3 6.7 C 0 km/h
Sensor: Nr:Datum:Temp:Abs-Feuchte:Windchill:Wind:
Aussen-T/F 326 17-01-2011 17:06:02 6.4 C 5.74 g/m*3 6.4 C 0 km/h
327 17-01-2011 17:18:01 6.1 C 5.77 g/m*3 6.1 C 0 km/h
328 17-01-2011 17:30:01 6.3 C 5.85 g/m*3 6.3 C 0 km/h
329 17-01-2011 17:42:01 6.2 C 5.88 g/m*3 6.2 C 0 km/h
330 17-01-2011 17:54:01 6 C 5.88 g/m*3 6 C 0 km/h
331 17-01-2011 18:06:02 5.9 C 5.98 g/m*3 5.9 C 0 km/h
332 17-01-2011 18:18:02 6 C 6.02 g/m*3 6 C 0 km/h
333 17-01-2011 18:30:02 6 C 6.02 g/m*3 6 C 0 km/h
334 17-01-2011 18:42:01 6 C 6.1 g/m*3 6 C 0 km/h
335 17-01-2011 18:54:01 6 C 6.1 g/m*3 6 C 0 km/h
336 17-01-2011 19:06:01 6 C 6.1 g/m*3 6 C 0 km/h
337 17-01-2011 19:18:02 6.2 C 6.1 g/m*3 6.2 C 0 km/h
338 17-01-2011 19:30:02 6.3 C 6.07 g/m*3 6.3 C 0 km/h
339 17-01-2011 19:42:02 6.3 C 6.07 g/m*3 6.3 C 0 km/h
340 17-01-2011 19:54:03 6.3 C 6.14 g/m*3 6.3 C 0 km/h
341 17-01-2011 20:06:03 6.5 C 6.15 g/m*3 6.5 C 0 km/h
342 17-01-2011 20:18:02 6.7 C 6.15 g/m*3 6.7 C 0 km/h
343 17-01-2011 20:30:02 6.8 C 6.19 g/m*3 6.8 C 0 km/h
344 17-01-2011 20:42:02 7.3 C 6.24 g/m*3 7.3 C 0 km/h
345 17-01-2011 20:54:02 7.4 C 6.2 g/m*3 7.4 C 0 km/h
346 17-01-2011 21:06:02 7.5 C 6.24 g/m*3 7.5 C 0 km/h
347 17-01-2011 21:18:03 7.9 C 6.32 g/m*3 7.9 C 0 km/h
348 17-01-2011 21:30:03 8.2 C 6.2 g/m*3 8.2 C 0 km/h
349 17-01-2011 21:42:02 8.2 C 6.2 g/m*3 8.2 C 0 km/h
350 17-01-2011 21:54:02 8.4 C 6.19 g/m*3 8.4 C 0 km/h
Sensor: Nr:Datum:Temp:Abs-Feuchte:Windchill:Wind:
Aussen-T/F 351 17-01-2011 22:06:02 8.2 C 6.11 g/m*3 8.2 C 0 km/h
352 17-01-2011 22:19:04 8.4 C 6.11 g/m*3 8.4 C 0 km/h
353 17-01-2011 22:31:04 8.2 C 6.11 g/m*3 8.2 C 0 km/h
354 17-01-2011 22:43:04 8.2 C 6.11 g/m*3 8.2 C 0 km/h
355 17-01-2011 22:55:04 8.4 C 6.19 g/m*3 8.4 C 0 km/h
356 17-01-2011 23:07:04 8.4 C 6.19 g/m*3 8.4 C 0 km/h
357 17-01-2011 23:19:04 8.6 C 6.27 g/m*3 8.6 C 0 km/h
358 17-01-2011 23:31:04 8.6 C 6.19 g/m*3 8.6 C 0 km/h
359 17-01-2011 23:43:04 8.5 C 6.23 g/m*3 8.5 C 0 km/h
360 17-01-2011 23:55:04 8.7 C 6.31 g/m*3 8.7 C 0 km/h
361 18-01-2011 00:07:04 8.5 C 6.23 g/m*3 8.5 C 0 km/h
362 18-01-2011 00:19:04 8.3 C 6.15 g/m*3 8.3 C 0 km/h
363 18-01-2011 00:31:04 7.5 C 6 g/m*3 7.5 C 0 km/h
364 18-01-2011 00:43:04 6.9 C 6.08 g/m*3 6.9 C 0 km/h
365 18-01-2011 00:55:04 7 C 6.2 g/m*3 7 C 0 km/h
366 18-01-2011 01:07:04 7.4 C 6.36 g/m*3 7.4 C 0 km/h
367 18-01-2011 01:19:04 7.3 C 6.24 g/m*3 7.3 C 0 km/h
368 18-01-2011 01:31:05 7.3 C 6.24 g/m*3 7.3 C 0 km/h
369 18-01-2011 01:43:05 6.6 C 6.04 g/m*3 6.6 C 0 km/h
370 18-01-2011 01:55:05 5.6 C 5.8 g/m*3 5.6 C 0 km/h
371 18-01-2011 02:07:05 5.3 C 5.82 g/m*3 5.3 C 0 km/h
372 18-01-2011 02:19:05 5.1 C 5.81 g/m*3 5.1 C 0 km/h
373 18-01-2011 02:31:05 5 C 5.84 g/m*3 5 C 0 km/h
374 18-01-2011 02:43:05 5.3 C 6.03 g/m*3 5.3 C 0 km/h
375 18-01-2011 02:55:05 5.5 C 6.18 g/m*3 5.5 C 0 km/h
Sensor: Nr:Datum:Temp:Abs-Feuchte:Windchill:Wind:
Aussen-T/F 376 18-01-2011 03:07:05 7 C 6.35 g/m*3 7 C 0 km/h
377 18-01-2011 03:19:05 6.6 C 6.04 g/m*3 6.6 C 0 km/h
378 18-01-2011 03:31:05 7.1 C 6.08 g/m*3 7.1 C 0 km/h
379 18-01-2011 03:43:05 7.6 C 6.12 g/m*3 7.6 C 0 km/h
380 18-01-2011 03:55:05 7.2 C 5.89 g/m*3 7.2 C 0 km/h
381 18-01-2011 04:07:05 6.7 C 5.93 g/m*3 6.7 C 0 km/h
382 18-01-2011 04:19:05 6.7 C 5.93 g/m*3 6.7 C 0 km/h
383 18-01-2011 04:31:05 7.4 C 6.04 g/m*3 7.4 C 0 km/h
384 18-01-2011 04:43:05 7.2 C 5.89 g/m*3 7.2 C 0 km/h
385 18-01-2011 04:55:05 7.3 C 6 g/m*3 7.3 C 0 km/h
386 18-01-2011 05:07:05 7.4 C 6.04 g/m*3 7.4 C 0 km/h
387 18-01-2011 05:19:05 7.6 C 6.12 g/m*3 7.6 C 0 km/h
388 18-01-2011 05:31:06 7.5 C 5.84 g/m*3 7.5 C 0 km/h
389 18-01-2011 05:43:06 8 C 5.79 g/m*3 8 C 0 km/h
390 18-01-2011 05:55:06 7.9 C 5.91 g/m*3 7.9 C 0 km/h
391 18-01-2011 06:07:06 7.5 C 5.84 g/m*3 7.5 C 0 km/h
392 18-01-2011 06:19:06 7.6 C 5.96 g/m*3 7.6 C 0 km/h
393 18-01-2011 06:31:06 6.8 C 5.89 g/m*3 6.8 C 0 km/h
394 18-01-2011 06:43:06 6.8 C 6.04 g/m*3 6.8 C 0 km/h
395 18-01-2011 06:55:06 7.6 C 6.12 g/m*3 7.6 C 0 km/h
396 18-01-2011 07:07:06 7 C 5.81 g/m*3 7 C 0 km/h
397 18-01-2011 07:19:06 6.6 C 5.96 g/m*3 6.6 C 0 km/h
398 18-01-2011 07:31:06 7.1 C 6.08 g/m*3 7.1 C 0 km/h
399 18-01-2011 07:43:06 7.3 C 6.08 g/m*3 7.3 C 0 km/h
400 18-01-2011 07:55:02 7.7 C 6.24 g/m*3 7.7 C 0 km/h
Sensor: Nr:Datum:Temp:Abs-Feuchte:Windchill:Wind:
Aussen-T/F 401 18-01-2011 08:07:02 7.1 C 5.93 g/m*3 7.1 C 0 km/h
402 18-01-2011 08:19:01 7.2 C 5.97 g/m*3 7.2 C 0 km/h
403 18-01-2011 08:31:02 7 C 5.97 g/m*3 7 C 0 km/h
404 18-01-2011 08:43:02 7.2 C 5.97 g/m*3 7.2 C 0 km/h
405 18-01-2011 08:55:01 8 C 6.04 g/m*3 8 C 0 km/h
406 18-01-2011 09:07:02 8.3 C 6.07 g/m*3 8.3 C 0 km/h
407 18-01-2011 09:19:01 8.4 C 6.02 g/m*3 8.4 C 0 km/h
408 18-01-2011 09:31:02 8.4 C 6.02 g/m*3 8.4 C 0 km/h
409 18-01-2011 09:43:02 8.6 C 6.02 g/m*3 8.6 C 0 km/h
410 18-01-2011 09:55:02 8.5 C 6.06 g/m*3 8.5 C 0 km/h
411 18-01-2011 10:07:02 8.6 C 6.1 g/m*3 8.6 C 0 km/h
412 18-01-2011 10:19:01 8.8 C 6.09 g/m*3 8.8 C 0 km/h
413 18-01-2011 10:31:02 9 C 5.99 g/m*3 9 C 0 km/h
414 18-01-2011 10:43:02 8.8 C 6.18 g/m*3 8.8 C 0 km/h
415 18-01-2011 10:55:02 9 C 6.08 g/m*3 9 C 0 km/h
416 18-01-2011 11:07:02 9.1 C 6.03 g/m*3 9.1 C 0 km/h
417 18-01-2011 11:19:02 9.2 C 6.07 g/m*3 9.2 C 0 km/h
418 18-01-2011 11:31:02 9.1 C 6.03 g/m*3 9.1 C 0 km/h
419 18-01-2011 11:43:02 8.4 C 6.02 g/m*3 8.4 C 0 km/h
420 18-01-2011 11:55:02 7.9 C 6.08 g/m*3 7.9 C 0 km/h
421 18-01-2011 12:07:02 8.8 C 6.27 g/m*3 8.8 C 0 km/h
422 18-01-2011 12:19:02 9.8 C 6.22 g/m*3 9.8 C 0 km/h
423 18-01-2011 12:31:01 10 C 5.92 g/m*3 10 C 0 km/h
424 18-01-2011 12:43:01 9.9 C 5.98 g/m*3 9.9 C 0 km/h
425 18-01-2011 12:55:02 10 C 5.92 g/m*3 10 C 0 km/h
Sensor: Nr:Datum:Temp:Abs-Feuchte:Windchill:Wind:
Aussen-T/F 426 18-01-2011 13:07:01 9.8 C 6.03 g/m*3 9.8 C 0 km/h
427 18-01-2011 13:19:01 9.9 C 5.98 g/m*3 9.9 C 0 km/h
428 18-01-2011 13:31:02 9.8 C 5.94 g/m*3 9.8 C 0 km/h
429 18-01-2011 13:43:02 9.6 C 6.14 g/m*3 9.6 C 0 km/h
430 18-01-2011 13:55:02 9.4 C 6.15 g/m*3 9.4 C 0 km/h
431 18-01-2011 14:07:02 9.8 C 6.12 g/m*3 9.8 C 0 km/h
432 18-01-2011 14:19:02 9.6 C 5.86 g/m*3 9.6 C 0 km/h
433 18-01-2011 14:31:02 9.6 C 5.86 g/m*3 9.6 C 0 km/h
434 18-01-2011 14:43:02 9.7 C 5.99 g/m*3 9.7 C 0 km/h
435 18-01-2011 14:55:02 9.9 C 5.88 g/m*3 9.9 C 0 km/h
436 18-01-2011 15:07:03 10.2 C 5.71 g/m*3 10.2 C 0 km/h
437 18-01-2011 15:19:02 9.5 C 5.73 g/m*3 9.5 C 0 km/h
438 18-01-2011 15:31:02 9.1 C 5.68 g/m*3 9.1 C 0 km/h
439 18-01-2011 15:43:02 9.2 C 5.63 g/m*3 9.2 C 0 km/h
440 18-01-2011 15:55:01 9.1 C 5.59 g/m*3 9.1 C 0 km/h
441 18-01-2011 16:07:02 9.1 C 5.5 g/m*3 9.1 C 0 km/h
442 18-01-2011 16:19:01 8.8 C 5.48 g/m*3 8.8 C 0 km/h
443 18-01-2011 16:31:01 9.1 C 5.59 g/m*3 9.1 C 0 km/h
444 18-01-2011 16:43:01 7.8 C 5.96 g/m*3 7.8 C 0 km/h
445 18-01-2011 16:55:01 7.1 C 6.24 g/m*3 7.1 C 0 km/h
446 18-01-2011 17:07:01 6.6 C 6.27 g/m*3 6.6 C 0 km/h
447 18-01-2011 17:19:02 6.5 C 6.37 g/m*3 6.5 C 0 km/h
448 18-01-2011 17:31:01 6.5 C 6.45 g/m*3 6.5 C 0 km/h
449 18-01-2011 17:43:01 6.6 C 6.49 g/m*3 6.6 C 0 km/h
450 18-01-2011 17:55:03 6.5 C 6.52 g/m*3 6.5 C 0 km/h
Sensor: Nr:Datum:Temp:Abs-Feuchte:Windchill:Wind:
Aussen-T/F 451 18-01-2011 18:07:02 6.4 C 6.48 g/m*3 6.4 C 0 km/h
452 18-01-2011 18:19:02 6.3 C 6.37 g/m*3 6.3 C 0 km/h
453 18-01-2011 18:31:02 6.1 C 6.21 g/m*3 6.1 C 0 km/h
454 18-01-2011 18:43:02 6.1 C 6.21 g/m*3 6.1 C 0 km/h
455 18-01-2011 18:55:02 5.9 C 6.27 g/m*3 5.9 C 0 km/h
456 18-01-2011 19:07:02 5.9 C 6.27 g/m*3 5.9 C 0 km/h
457 18-01-2011 19:19:02 5.9 C 6.27 g/m*3 5.9 C 0 km/h
458 18-01-2011 19:31:03 5.9 C 6.27 g/m*3 5.9 C 0 km/h
459 18-01-2011 19:43:03 5.8 C 6.23 g/m*3 5.8 C 0 km/h
460 18-01-2011 19:55:02 5.8 C 6.23 g/m*3 5.8 C 0 km/h
461 18-01-2011 20:07:02 5.8 C 6.23 g/m*3 5.8 C 0 km/h
462 18-01-2011 20:19:02 5.9 C 6.13 g/m*3 5.9 C 0 km/h
463 18-01-2011 20:31:02 5.8 C 6.02 g/m*3 5.8 C 0 km/h
464 18-01-2011 20:43:02 5.7 C 5.98 g/m*3 5.7 C 0 km/h
465 18-01-2011 20:55:02 5.5 C 5.83 g/m*3 5.5 C 0 km/h
466 18-01-2011 21:07:02 5.3 C 5.75 g/m*3 5.3 C 0 km/h
467 18-01-2011 21:19:02 5.2 C 5.65 g/m*3 5.2 C 0 km/h
468 18-01-2011 21:31:01 5.1 C 5.61 g/m*3 5.1 C 0 km/h
469 18-01-2011 21:43:01 5 C 5.57 g/m*3 5 C 0 km/h
470 18-01-2011 21:55:02 4.9 C 5.54 g/m*3 4.9 C 0 km/h
471 18-01-2011 22:08:03 4.8 C 5.57 g/m*3 4.8 C 0 km/h
472 18-01-2011 22:20:03 4.7 C 5.46 g/m*3 4.7 C 0 km/h
473 18-01-2011 22:32:03 4.6 C 5.43 g/m*3 4.6 C 0 km/h
474 18-01-2011 22:44:03 4.6 C 5.49 g/m*3 4.6 C 0 km/h
475 18-01-2011 22:56:03 4.5 C 5.46 g/m*3 4.5 C 0 km/h
Sensor: Nr:Datum:Temp:Abs-Feuchte:Windchill:Wind:
Aussen-T/F 476 18-01-2011 23:08:04 4.6 C 5.49 g/m*3 4.6 C 0 km/h
477 18-01-2011 23:20:04 4.6 C 5.43 g/m*3 4.6 C 0 km/h
478 18-01-2011 23:32:04 4.6 C 5.43 g/m*3 4.6 C 0 km/h
479 18-01-2011 23:44:04 4.8 C 5.5 g/m*3 4.8 C 0 km/h
480 18-01-2011 23:56:04 4.8 C 5.5 g/m*3 4.8 C 0 km/h
481 19-01-2011 00:08:04 4.7 C 5.46 g/m*3 4.7 C 0 km/h
482 19-01-2011 00:20:04 4.6 C 5.36 g/m*3 4.6 C 0 km/h
483 19-01-2011 00:32:04 4.3 C 5.06 g/m*3 4.3 C 0 km/h
484 19-01-2011 00:44:04 4.1 C 5.06 g/m*3 4.1 C 0 km/h
485 19-01-2011 00:56:04 4.1 C 5.06 g/m*3 4.1 C 0 km/h
486 19-01-2011 01:08:04 4 C 4.9 g/m*3 4 C 0 km/h
487 19-01-2011 01:20:04 4 C 4.83 g/m*3 4 C 0 km/h
488 19-01-2011 01:32:04 3.8 C 4.71 g/m*3 3.8 C 0 km/h
489 19-01-2011 01:44:04 3.8 C 4.71 g/m*3 3.8 C 0 km/h
490 19-01-2011 01:56:04 3.8 C 4.71 g/m*3 3.8 C 0 km/h
491 19-01-2011 02:08:04 3.8 C 4.64 g/m*3 3.8 C 0 km/h
492 19-01-2011 02:20:04 3.7 C 4.67 g/m*3 3.7 C 0 km/h
493 19-01-2011 02:32:04 3.1 C 4.61 g/m*3 3.1 C 0 km/h
494 19-01-2011 02:44:04 3.2 C 4.7 g/m*3 3.2 C 0 km/h
495 19-01-2011 02:56:04 3.3 C 4.73 g/m*3 3.3 C 0 km/h
496 19-01-2011 03:08:04 3.3 C 4.73 g/m*3 3.3 C 0 km/h
497 19-01-2011 03:20:05 2.9 C 4.78 g/m*3 2.9 C 0 km/h
498 19-01-2011 03:32:05 2.7 C 4.78 g/m*3 2.7 C 0 km/h
499 19-01-2011 03:44:05 2.7 C 4.84 g/m*3 2.7 C 0 km/h
500 19-01-2011 03:56:05 3 C 4.88 g/m*3 3 C 0 km/h
Sensor: Nr:Datum:Temp:Abs-Feuchte:Windchill:Wind:
Aussen-T/F 501 19-01-2011 04:08:05 3 C 4.88 g/m*3 3 C 0 km/h
502 19-01-2011 04:20:05 3 C 4.88 g/m*3 3 C 0 km/h
503 19-01-2011 04:32:05 2.8 C 4.93 g/m*3 2.8 C 0 km/h
504 19-01-2011 04:44:05 2.7 C 4.89 g/m*3 2.7 C 0 km/h
505 19-01-2011 04:56:05 2.5 C 4.89 g/m*3 2.5 C 0 km/h
506 19-01-2011 05:08:05 2.5 C 4.94 g/m*3 2.5 C 0 km/h
507 19-01-2011 05:20:05 2.5 C 4.94 g/m*3 2.5 C 0 km/h
508 19-01-2011 05:32:05 2.5 C 4.94 g/m*3 2.5 C 0 km/h
509 19-01-2011 05:44:05 2.6 C 5.03 g/m*3 2.6 C 0 km/h
510 19-01-2011 05:56:05 2.7 C 5.07 g/m*3 2.7 C 0 km/h
511 19-01-2011 06:08:05 2.6 C 4.98 g/m*3 2.6 C 0 km/h
512 19-01-2011 06:20:05 2.6 C 5.03 g/m*3 2.6 C 0 km/h
513 19-01-2011 06:32:05 2.6 C 4.98 g/m*3 2.6 C 0 km/h
514 19-01-2011 06:44:05 2.6 C 4.98 g/m*3 2.6 C 0 km/h
515 19-01-2011 06:56:05 2.8 C 4.99 g/m*3 2.8 C 0 km/h
516 19-01-2011 07:08:05 2.8 C 4.87 g/m*3 2.8 C 0 km/h
517 19-01-2011 07:20:06 2.9 C 4.84 g/m*3 2.9 C 0 km/h
518 19-01-2011 07:32:06 2.8 C 4.81 g/m*3 2.8 C 0 km/h
519 19-01-2011 07:44:06 2.9 C 4.9 g/m*3 2.9 C 0 km/h
520 19-01-2011 07:56:02 2.6 C 4.8 g/m*3 2.6 C 0 km/h
521 19-01-2011 08:08:02 2.4 C 4.8 g/m*3 2.4 C 0 km/h
522 19-01-2011 08:20:02 2.3 C 4.82 g/m*3 2.3 C 0 km/h
523 19-01-2011 08:32:02 2.3 C 4.88 g/m*3 2.3 C 0 km/h
524 19-01-2011 08:44:02 2.3 C 4.88 g/m*3 2.3 C 0 km/h
525 19-01-2011 08:56:02 2.7 C 4.95 g/m*3 2.7 C 0 km/h
Sensor: Nr:Datum:Temp:Abs-Feuchte:Windchill:Wind:
Aussen-T/F 526 19-01-2011 09:08:02 2.4 C 4.74 g/m*3 2.4 C 0 km/h
527 19-01-2011 09:20:03 2.5 C 4.77 g/m*3 2.5 C 0 km/h
528 19-01-2011 09:32:02 2.7 C 4.84 g/m*3 2.7 C 0 km/h
529 19-01-2011 09:44:02 2.9 C 4.9 g/m*3 2.9 C 0 km/h
530 19-01-2011 09:56:02 3 C 4.82 g/m*3 3 C 0 km/h
531 19-01-2011 10:08:02 3.1 C 4.85 g/m*3 3.1 C 0 km/h
532 19-01-2011 10:20:02 2.1 C 4.53 g/m*3 2.1 C 0 km/h
533 19-01-2011 10:32:03 2 C 4.56 g/m*3 2 C 0 km/h
534 19-01-2011 10:44:03 2.1 C 4.59 g/m*3 2.1 C 0 km/h
535 19-01-2011 10:56:02 2.7 C 4.89 g/m*3 2.7 C 0 km/h
536 19-01-2011 11:08:01 3.1 C 4.85 g/m*3 3.1 C 0 km/h
537 19-01-2011 11:20:02 3.5 C 4.86 g/m*3 3.5 C 0 km/h
538 19-01-2011 11:32:02 4 C 4.96 g/m*3 4 C 0 km/h
539 19-01-2011 11:44:02 3.9 C 4.8 g/m*3 3.9 C 0 km/h
540 19-01-2011 11:56:02 3.7 C 4.74 g/m*3 3.7 C 0 km/h
541 19-01-2011 12:08:03 4.1 C 4.67 g/m*3 4.1 C 0 km/h
542 19-01-2011 12:20:02 4.3 C 4.67 g/m*3 4.3 C 0 km/h
543 19-01-2011 12:32:02 4.4 C 4.7 g/m*3 4.4 C 0 km/h
544 19-01-2011 12:44:03 4.6 C 4.57 g/m*3 4.6 C 0 km/h
545 19-01-2011 12:56:01 4.8 C 4.56 g/m*3 4.8 C 0 km/h
546 19-01-2011 13:08:02 4.8 C 4.43 g/m*3 4.8 C 0 km/h
547 19-01-2011 13:20:01 4.7 C 4.4 g/m*3 4.7 C 0 km/h
548 19-01-2011 13:32:01 5 C 4.28 g/m*3 5 C 0 km/h
549 19-01-2011 13:44:01 5.2 C 4.34 g/m*3 5.2 C 0 km/h
550 19-01-2011 13:56:01 5 C 4.28 g/m*3 5 C 0 km/h
Sensor: Nr:Datum:Temp:Abs-Feuchte:Windchill:Wind:
Aussen-T/F 551 19-01-2011 14:08:02 5.3 C 4.3 g/m*3 5.3 C 0 km/h
552 19-01-2011 14:20:02 5.2 C 4.27 g/m*3 5.2 C 0 km/h
553 19-01-2011 14:32:01 5.4 C 4.19 g/m*3 5.4 C 0 km/h
554 19-01-2011 14:44:01 5.5 C 4.21 g/m*3 5.5 C 0 km/h
555 19-01-2011 14:56:01 5.4 C 4.26 g/m*3 5.4 C 0 km/h
556 19-01-2011 15:08:01 5.1 C 4.17 g/m*3 5.1 C 0 km/h
557 19-01-2011 15:20:02 4.9 C 4.12 g/m*3 4.9 C 0 km/h
558 19-01-2011 15:32:01 4.9 C 4.12 g/m*3 4.9 C 0 km/h
559 19-01-2011 15:44:01 4.9 C 4.12 g/m*3 4.9 C 0 km/h
560 19-01-2011 15:56:02 4.9 C 4.12 g/m*3 4.9 C 0 km/h
561 19-01-2011 16:08:01 4.9 C 4.12 g/m*3 4.9 C 0 km/h
562 19-01-2011 16:20:01 4.9 C 4.12 g/m*3 4.9 C 0 km/h
563 19-01-2011 16:32:02 3.8 C 4.52 g/m*3 3.8 C 0 km/h
564 19-01-2011 16:44:02 3.8 C 4.52 g/m*3 3.8 C 0 km/h
565 19-01-2011 16:56:02 3.5 C 4.55 g/m*3 3.5 C 0 km/h
566 19-01-2011 17:08:02 3.7 C 4.55 g/m*3 3.7 C 0 km/h
567 19-01-2011 17:20:02 3.5 C 4.49 g/m*3 3.5 C 0 km/h
568 19-01-2011 17:32:02 3.5 C 4.49 g/m*3 3.5 C 0 km/h
569 19-01-2011 17:44:02 3.1 C 4.49 g/m*3 3.1 C 0 km/h
570 19-01-2011 17:56:01 2.9 C 4.67 g/m*3 2.9 C 0 km/h
571 19-01-2011 18:08:02 2.8 C 4.69 g/m*3 2.8 C 0 km/h
572 19-01-2011 18:20:01 2.9 C 4.78 g/m*3 2.9 C 0 km/h
573 19-01-2011 18:32:02 2.6 C 4.69 g/m*3 2.6 C 0 km/h
574 19-01-2011 18:44:03 3.2 C 4.82 g/m*3 3.2 C 0 km/h
575 19-01-2011 18:56:02 3.2 C 4.52 g/m*3 3.2 C 0 km/h
Sensor: Nr:Datum:Temp:Abs-Feuchte:Windchill:Wind:
Aussen-T/F 576 19-01-2011 19:08:02 3.4 C 4.46 g/m*3 3.4 C 0 km/h
577 19-01-2011 19:20:01 3.5 C 4.43 g/m*3 3.5 C 0 km/h
578 19-01-2011 19:32:02 3.5 C 4.37 g/m*3 3.5 C 0 km/h
579 19-01-2011 19:44:02 3 C 4.46 g/m*3 3 C 0 km/h
580 19-01-2011 19:56:01 2.6 C 4.57 g/m*3 2.6 C 0 km/h
581 19-01-2011 20:08:02 2.3 C 4.59 g/m*3 2.3 C 0 km/h
582 19-01-2011 20:20:02 2.2 C 4.62 g/m*3 2.2 C 0 km/h
583 19-01-2011 20:32:02 2.4 C 4.74 g/m*3 2.4 C 0 km/h
584 19-01-2011 20:44:02 2.4 C 4.74 g/m*3 2.4 C 0 km/h
585 19-01-2011 20:56:02 2.5 C 4.77 g/m*3 2.5 C 0 km/h
586 19-01-2011 21:08:02 2.6 C 4.86 g/m*3 2.6 C 0 km/h
587 19-01-2011 21:20:02 2.5 C 4.77 g/m*3 2.5 C 0 km/h
588 19-01-2011 21:32:02 2.4 C 4.74 g/m*3 2.4 C 0 km/h
589 19-01-2011 21:44:02 2.5 C 4.77 g/m*3 2.5 C 0 km/h
590 19-01-2011 21:56:02 2.5 C 4.77 g/m*3 2.5 C 0 km/h
591 19-01-2011 22:08:02 2.4 C 4.74 g/m*3 2.4 C 0 km/h
592 19-01-2011 22:21:03 2.4 C 4.74 g/m*3 2.4 C 0 km/h
593 19-01-2011 22:33:03 2.4 C 4.74 g/m*3 2.4 C 0 km/h
594 19-01-2011 22:45:03 2.4 C 4.74 g/m*3 2.4 C 0 km/h
595 19-01-2011 22:57:03 2.4 C 4.68 g/m*3 2.4 C 0 km/h
596 19-01-2011 23:09:03 2.4 C 4.68 g/m*3 2.4 C 0 km/h
597 19-01-2011 23:21:03 2.4 C 4.74 g/m*3 2.4 C 0 km/h
598 19-01-2011 23:33:03 2.4 C 4.74 g/m*3 2.4 C 0 km/h
599 19-01-2011 23:45:03 2.1 C 4.64 g/m*3 2.1 C 0 km/h
600 19-01-2011 23:57:03 2.1 C 4.64 g/m*3 2.1 C 0 km/h
Sensor: Nr:Datum:Temp:Abs-Feuchte:Windchill:Wind:
Aussen-T/F 601 20-01-2011 00:09:03 1.8 C 4.71 g/m*3 1.8 C 0 km/h
602 20-01-2011 00:21:04 1.7 C 4.68 g/m*3 1.7 C 0 km/h
603 20-01-2011 00:33:04 1.7 C 4.68 g/m*3 1.7 C 0 km/h
604 20-01-2011 00:45:04 1.7 C 4.79 g/m*3 1.7 C 0 km/h
605 20-01-2011 00:57:04 1.7 C 4.79 g/m*3 1.7 C 0 km/h
606 20-01-2011 01:09:04 1.8 C 4.82 g/m*3 1.8 C 0 km/h
607 20-01-2011 01:21:04 1.8 C 4.88 g/m*3 1.8 C 0 km/h
608 20-01-2011 01:33:04 1.8 C 4.88 g/m*3 1.8 C 0 km/h
609 20-01-2011 01:45:04 1.9 C 4.91 g/m*3 1.9 C 0 km/h
610 20-01-2011 01:57:04 1.8 C 4.88 g/m*3 1.8 C 0 km/h
611 20-01-2011 02:09:04 1.8 C 4.88 g/m*3 1.8 C 0 km/h
612 20-01-2011 02:21:04 0.9 C 4.59 g/m*3 0.9 C 0 km/h
613 20-01-2011 02:33:04 1 C 4.62 g/m*3 1 C 0 km/h
614 20-01-2011 02:45:04 1.1 C 4.7 g/m*3 1.1 C 0 km/h
615 20-01-2011 02:57:04 1.3 C 4.77 g/m*3 1.3 C 0 km/h
616 20-01-2011 03:09:04 1.4 C 4.8 g/m*3 1.4 C 0 km/h
617 20-01-2011 03:21:04 1.3 C 4.82 g/m*3 1.3 C 0 km/h
618 20-01-2011 03:33:04 1.4 C 4.85 g/m*3 1.4 C 0 km/h
619 20-01-2011 03:45:04 1.4 C 4.85 g/m*3 1.4 C 0 km/h
620 20-01-2011 03:57:04 1.2 C 4.79 g/m*3 1.2 C 0 km/h
621 20-01-2011 04:09:04 1.2 C 4.79 g/m*3 1.2 C 0 km/h
622 20-01-2011 04:21:05 1.3 C 4.82 g/m*3 1.3 C 0 km/h
623 20-01-2011 04:33:05 1.3 C 4.82 g/m*3 1.3 C 0 km/h
624 20-01-2011 04:45:05 1 C 4.72 g/m*3 1 C 0 km/h
625 20-01-2011 04:57:05 1 C 4.72 g/m*3 1 C 0 km/h
Sensor: Nr:Datum:Temp:Abs-Feuchte:Windchill:Wind:
Aussen-T/F 626 20-01-2011 05:09:05 1.3 C 4.82 g/m*3 1.3 C 0 km/h
627 20-01-2011 05:21:05 1.2 C 4.79 g/m*3 1.2 C 0 km/h
628 20-01-2011 05:33:05 1.4 C 4.91 g/m*3 1.4 C 0 km/h
629 20-01-2011 05:45:05 1.4 C 4.91 g/m*3 1.4 C 0 km/h
630 20-01-2011 05:57:05 1.5 C 4.94 g/m*3 1.5 C 0 km/h
631 20-01-2011 06:09:05 1.4 C 4.91 g/m*3 1.4 C 0 km/h
632 20-01-2011 06:21:05 1.4 C 4.91 g/m*3 1.4 C 0 km/h
633 20-01-2011 06:33:05 1.2 C 4.84 g/m*3 1.2 C 0 km/h
634 20-01-2011 06:45:05 1.2 C 4.79 g/m*3 1.2 C 0 km/h
635 20-01-2011 06:57:05 1.2 C 4.79 g/m*3 1.2 C 0 km/h
636 20-01-2011 07:09:02 1.1 C 4.76 g/m*3 1.1 C 0 km/h
637 20-01-2011 07:21:02 1 C 4.72 g/m*3 1 C 0 km/h
638 20-01-2011 07:33:02 1 C 4.72 g/m*3 1 C 0 km/h
639 20-01-2011 07:45:02 1 C 4.72 g/m*3 1 C 0 km/h
640 20-01-2011 07:57:03 1 C 4.72 g/m*3 1 C 0 km/h
641 20-01-2011 08:09:02 1.2 C 4.79 g/m*3 1.2 C 0 km/h
642 20-01-2011 08:21:02 1.2 C 4.79 g/m*3 1.2 C 0 km/h
643 20-01-2011 08:33:03 1.2 C 4.74 g/m*3 1.2 C 0 km/h
644 20-01-2011 08:45:02 1.2 C 4.74 g/m*3 1.2 C 0 km/h
645 20-01-2011 08:57:02 1.2 C 4.68 g/m*3 1.2 C 0 km/h
646 20-01-2011 09:09:02 1.2 C 4.68 g/m*3 1.2 C 0 km/h
647 20-01-2011 09:21:02 1.3 C 4.72 g/m*3 1.3 C 0 km/h
648 20-01-2011 09:33:02 1.4 C 4.69 g/m*3 1.4 C 0 km/h
649 20-01-2011 09:45:02 1.6 C 4.7 g/m*3 1.6 C 0 km/h
650 20-01-2011 09:57:02 1.7 C 4.68 g/m*3 1.7 C 0 km/h
Sensor: Nr:Datum:Temp:Abs-Feuchte:Windchill:Wind:
Aussen-T/F 651 20-01-2011 10:09:02 1.8 C 4.66 g/m*3 1.8 C 0 km/h
652 20-01-2011 10:21:02 1.8 C 4.66 g/m*3 1.8 C 0 km/h
653 20-01-2011 10:33:02 2.1 C 4.64 g/m*3 2.1 C 0 km/h
654 20-01-2011 10:45:02 2.1 C 4.53 g/m*3 2.1 C 0 km/h
655 20-01-2011 10:57:02 2.3 C 4.54 g/m*3 2.3 C 0 km/h
656 20-01-2011 11:09:02 2.3 C 4.54 g/m*3 2.3 C 0 km/h
657 20-01-2011 11:21:02 2.7 C 4.54 g/m*3 2.7 C 0 km/h
658 20-01-2011 11:33:02 2.8 C 4.52 g/m*3 2.8 C 0 km/h
659 20-01-2011 11:45:01 2.6 C 4.4 g/m*3 2.6 C 0 km/h
660 20-01-2011 11:57:01 3.2 C 4.64 g/m*3 3.2 C 0 km/h
661 20-01-2011 12:09:01 3.1 C 4.49 g/m*3 3.1 C 0 km/h
662 20-01-2011 12:21:02 3.2 C 4.46 g/m*3 3.2 C 0 km/h
663 20-01-2011 12:33:01 3.2 C 4.4 g/m*3 3.2 C 0 km/h
664 20-01-2011 12:45:01 3.4 C 4.46 g/m*3 3.4 C 0 km/h
665 20-01-2011 12:57:01 3.4 C 4.4 g/m*3 3.4 C 0 km/h
666 20-01-2011 13:09:01 3.5 C 4.37 g/m*3 3.5 C 0 km/h
667 20-01-2011 13:21:02 3.8 C 4.39 g/m*3 3.8 C 0 km/h
668 20-01-2011 13:33:01 4 C 4.39 g/m*3 4 C 0 km/h
669 20-01-2011 13:45:02 4 C 4.32 g/m*3 4 C 0 km/h
670 20-01-2011 13:57:02 4.1 C 4.29 g/m*3 4.1 C 0 km/h
671 20-01-2011 14:09:02 4.1 C 4.29 g/m*3 4.1 C 0 km/h
672 20-01-2011 14:21:02 4.1 C 4.29 g/m*3 4.1 C 0 km/h
673 20-01-2011 14:33:01 4.1 C 4.29 g/m*3 4.1 C 0 km/h
674 20-01-2011 14:45:02 4.1 C 4.29 g/m*3 4.1 C 0 km/h
675 20-01-2011 14:57:03 4.1 C 4.29 g/m*3 4.1 C 0 km/h
Sensor: Nr:Datum:Temp:Abs-Feuchte:Windchill:Wind:
Aussen-T/F 676 20-01-2011 15:09:01 4.1 C 4.29 g/m*3 4.1 C 0 km/h
677 20-01-2011 15:21:02 4.1 C 4.29 g/m*3 4.1 C 0 km/h
678 20-01-2011 15:33:02 2.7 C 3.96 g/m*3 2.7 C 0 km/h
679 20-01-2011 15:45:02 2.7 C 3.96 g/m*3 2.7 C 0 km/h
680 20-01-2011 15:57:02 2.7 C 4.02 g/m*3 2.7 C 0 km/h
681 20-01-2011 16:09:02 2.7 C 4.02 g/m*3 2.7 C 0 km/h
682 20-01-2011 16:21:02 2.6 C 3.99 g/m*3 2.6 C 0 km/h
683 20-01-2011 16:33:02 2.5 C 3.97 g/m*3 2.5 C 0 km/h
684 20-01-2011 16:45:01 2.4 C 4 g/m*3 2.4 C 0 km/h
685 20-01-2011 16:57:01 2.2 C 3.94 g/m*3 2.2 C 0 km/h
686 20-01-2011 17:09:02 2.2 C 3.94 g/m*3 2.2 C 0 km/h
687 20-01-2011 17:21:01 2 C 3.95 g/m*3 2 C 0 km/h
688 20-01-2011 17:33:01 2 C 3.95 g/m*3 2 C 0 km/h
689 20-01-2011 17:45:02 1.9 C 3.97 g/m*3 1.9 C 0 km/h
690 20-01-2011 17:57:02 1.8 C 3.95 g/m*3 1.8 C 0 km/h
691 20-01-2011 18:09:02 1.7 C 3.97 g/m*3 1.7 C 0 km/h
692 20-01-2011 18:21:02 1.7 C 3.97 g/m*3 1.7 C 0 km/h
693 20-01-2011 18:33:02 1.7 C 3.97 g/m*3 1.7 C 0 km/h
694 20-01-2011 18:45:02 1.7 C 3.97 g/m*3 1.7 C 0 km/h
695 20-01-2011 18:57:02 1.7 C 3.97 g/m*3 1.7 C 0 km/h
696 20-01-2011 19:09:02 1.7 C 3.97 g/m*3 1.7 C 0 km/h
697 20-01-2011 19:21:02 1.4 C 3.95 g/m*3 1.4 C 0 km/h
698 20-01-2011 19:33:03 1.2 C 3.89 g/m*3 1.2 C 0 km/h
699 20-01-2011 19:45:02 1.1 C 3.81 g/m*3 1.1 C 0 km/h
700 20-01-2011 19:57:02 1.1 C 3.81 g/m*3 1.1 C 0 km/h
Sensor: Nr:Datum:Temp:Abs-Feuchte:Windchill:Wind:
Aussen-T/F 701 20-01-2011 20:09:01 0.8 C 3.79 g/m*3 0.8 C 0 km/h
702 20-01-2011 20:21:02 0.8 C 3.79 g/m*3 0.8 C 0 km/h
703 20-01-2011 20:33:01 1.1 C 3.71 g/m*3 1.1 C 0 km/h
704 20-01-2011 20:45:02 1.1 C 3.71 g/m*3 1.1 C 0 km/h
705 20-01-2011 20:57:02 0.7 C 3.61 g/m*3 0.7 C 0 km/h
706 20-01-2011 21:09:01 0 C 3.49 g/m*3 0 C 0 km/h
707 20-01-2011 21:21:01 0 C 3.63 g/m*3 0 C 0 km/h
708 20-01-2011 21:33:01 -0.2 C 3.63 g/m*3 -0.2 C 0 km/h
709 20-01-2011 21:45:02 -0.4 C 3.58 g/m*3 -0.4 C 0 km/h
710 20-01-2011 21:57:03 -0.2 C 3.63 g/m*3 -0.2 C 0 km/h
711 20-01-2011 22:10:04 -0.4 C 3.53 g/m*3 -0.4 C 0 km/h
712 20-01-2011 22:22:04 -0.2 C 3.54 g/m*3 -0.2 C 0 km/h
713 20-01-2011 22:34:04 -0.4 C 3.49 g/m*3 -0.4 C 0 km/h
714 20-01-2011 22:46:04 -0.2 C 3.58 g/m*3 -0.2 C 0 km/h
715 20-01-2011 22:58:04 -0.2 C 3.58 g/m*3 -0.2 C 0 km/h
716 20-01-2011 23:10:04 -0.4 C 3.58 g/m*3 -0.4 C 0 km/h
717 20-01-2011 23:22:04 0 C 3.68 g/m*3 0 C 0 km/h
718 20-01-2011 23:34:04 0.2 C 3.68 g/m*3 0.2 C 0 km/h
719 20-01-2011 23:46:04 0.3 C 3.66 g/m*3 0.3 C 0 km/h
720 20-01-2011 23:58:04 0.3 C 3.61 g/m*3 0.3 C 0 km/h
721 21-01-2011 00:10:04 0.4 C 3.29 g/m*3 0.4 C 0 km/h
722 21-01-2011 00:22:04 0.4 C 3.14 g/m*3 0.4 C 0 km/h
723 21-01-2011 00:34:04 0.4 C 3.14 g/m*3 0.4 C 0 km/h
724 21-01-2011 00:46:04 0.3 C 3.07 g/m*3 0.3 C 0 km/h
725 21-01-2011 00:58:04 0.2 C 3.05 g/m*3 0.2 C 0 km/h
Sensor: Nr:Datum:Temp:Abs-Feuchte:Windchill:Wind:
Aussen-T/F 726 21-01-2011 01:10:04 0.1 C 3.17 g/m*3 0.1 C 0 km/h
727 21-01-2011 01:22:04 0.1 C 3.12 g/m*3 0.1 C 0 km/h
728 21-01-2011 01:34:04 0.2 C 3.05 g/m*3 0.2 C 0 km/h
729 21-01-2011 01:46:05 0.2 C 3.05 g/m*3 0.2 C 0 km/h
730 21-01-2011 01:58:05 0.3 C 3.02 g/m*3 0.3 C 0 km/h
731 21-01-2011 02:10:05 0.2 C 3.09 g/m*3 0.2 C 0 km/h
732 21-01-2011 02:22:05 0.2 C 3.19 g/m*3 0.2 C 0 km/h
733 21-01-2011 02:34:05 0.1 C 3.27 g/m*3 0.1 C 0 km/h
734 21-01-2011 02:46:05 0 C 3.05 g/m*3 0 C 0 km/h
735 21-01-2011 02:58:05 -0.3 C 2.94 g/m*3 -0.3 C 0 km/h
736 21-01-2011 03:10:05 -0.3 C 2.8 g/m*3 -0.3 C 0 km/h
737 21-01-2011 03:22:05 -0.4 C 2.83 g/m*3 -0.4 C 0 km/h
738 21-01-2011 03:34:05 -0.5 C 2.81 g/m*3 -0.5 C 0 km/h
739 21-01-2011 03:46:05 -0.4 C 2.78 g/m*3 -0.4 C 0 km/h
740 21-01-2011 03:58:05 -0.2 C 2.77 g/m*3 -0.2 C 0 km/h
741 21-01-2011 04:10:05 -0.2 C 2.72 g/m*3 -0.2 C 0 km/h
742 21-01-2011 04:22:05 -0.4 C 2.69 g/m*3 -0.4 C 0 km/h
743 21-01-2011 04:34:05 -0.5 C 2.62 g/m*3 -0.5 C 0 km/h
744 21-01-2011 04:46:05 -0.4 C 2.64 g/m*3 -0.4 C 0 km/h
745 21-01-2011 04:58:05 -0.4 C 2.69 g/m*3 -0.4 C 0 km/h
746 21-01-2011 05:10:05 -0.5 C 2.71 g/m*3 -0.5 C 0 km/h
747 21-01-2011 05:22:05 -0.5 C 2.76 g/m*3 -0.5 C 0 km/h
748 21-01-2011 05:34:05 -0.3 C 2.75 g/m*3 -0.3 C 0 km/h
749 21-01-2011 05:46:06 -0.4 C 2.78 g/m*3 -0.4 C 0 km/h
750 21-01-2011 05:58:06 -0.6 C 2.74 g/m*3 -0.6 C 0 km/h
Sensor: Nr:Datum:Temp:Abs-Feuchte:Windchill:Wind:
Aussen-T/F 751 21-01-2011 06:10:06 -0.7 C 2.77 g/m*3 -0.7 C 0 km/h
752 21-01-2011 06:22:06 -1 C 2.8 g/m*3 -1 C 0 km/h
753 21-01-2011 06:34:06 -0.9 C 2.87 g/m*3 -0.9 C 0 km/h
754 21-01-2011 06:46:06 -0.6 C 2.84 g/m*3 -0.6 C 0 km/h
755 21-01-2011 06:58:06 -0.5 C 2.76 g/m*3 -0.5 C 0 km/h
756 21-01-2011 07:10:06 -0.5 C 2.76 g/m*3 -0.5 C 0 km/h
757 21-01-2011 07:22:04 -0.6 C 2.7 g/m*3 -0.6 C 0 km/h
758 21-01-2011 07:34:04 -0.6 C 2.65 g/m*3 -0.6 C 0 km/h
759 21-01-2011 07:46:02 -0.7 C 2.63 g/m*3 -0.7 C 0 km/h
760 21-01-2011 07:58:02 -0.6 C 2.6 g/m*3 -0.6 C 0 km/h
761 21-01-2011 08:10:01 -0.6 C 2.65 g/m*3 -0.6 C 0 km/h
762 21-01-2011 08:22:02 -0.4 C 2.73 g/m*3 -0.4 C 0 km/h
763 21-01-2011 08:34:02 -0.5 C 2.67 g/m*3 -0.5 C 0 km/h
764 21-01-2011 08:46:02 -0.5 C 2.71 g/m*3 -0.5 C 0 km/h
765 21-01-2011 08:58:02 -0.5 C 2.67 g/m*3 -0.5 C 0 km/h
766 21-01-2011 09:10:02 -0.4 C 2.69 g/m*3 -0.4 C 0 km/h
767 21-01-2011 09:22:02 -0.2 C 2.77 g/m*3 -0.2 C 0 km/h
768 21-01-2011 09:34:02 -0.1 C 2.79 g/m*3 -0.1 C 0 km/h
769 21-01-2011 09:46:01 0 C 2.81 g/m*3 0 C 0 km/h
770 21-01-2011 09:58:01 0 C 2.71 g/m*3 0 C 0 km/h
771 21-01-2011 10:10:02 0.1 C 2.73 g/m*3 0.1 C 0 km/h
772 21-01-2011 10:22:02 0.3 C 2.77 g/m*3 0.3 C 0 km/h
773 21-01-2011 10:34:02 0.1 C 2.73 g/m*3 0.1 C 0 km/h
774 21-01-2011 10:46:02 0.1 C 2.73 g/m*3 0.1 C 0 km/h
775 21-01-2011 10:58:02 0.1 C 2.73 g/m*3 0.1 C 0 km/h
Sensor: Nr:Datum:Temp:Abs-Feuchte:Windchill:Wind:
Aussen-T/F 776 21-01-2011 11:10:01 0.2 C 2.8 g/m*3 0.2 C 0 km/h
777 21-01-2011 11:22:02 -0.1 C 2.79 g/m*3 -0.1 C 0 km/h
778 21-01-2011 11:34:01 -0.2 C 2.77 g/m*3 -0.2 C 0 km/h
779 21-01-2011 11:46:02 0.1 C 2.93 g/m*3 0.1 C 0 km/h
780 21-01-2011 11:58:03 0.1 C 2.83 g/m*3 0.1 C 0 km/h
781 21-01-2011 12:10:02 0.4 C 2.94 g/m*3 0.4 C 0 km/h
782 21-01-2011 12:22:02 0.1 C 2.83 g/m*3 0.1 C 0 km/h
783 21-01-2011 12:34:02 -0.2 C 2.82 g/m*3 -0.2 C 0 km/h
784 21-01-2011 12:46:01 0.5 C 2.96 g/m*3 0.5 C 0 km/h
785 21-01-2011 12:58:01 0.8 C 2.97 g/m*3 0.8 C 0 km/h
786 21-01-2011 13:10:02 0.8 C 3.02 g/m*3 0.8 C 0 km/h
787 21-01-2011 13:22:01 1.4 C 2.93 g/m*3 1.4 C 0 km/h
788 21-01-2011 13:34:02 1.5 C 2.95 g/m*3 1.5 C 0 km/h
789 21-01-2011 13:46:01 1 C 2.85 g/m*3 1 C 0 km/h
790 21-01-2011 13:58:01 0.6 C 2.98 g/m*3 0.6 C 0 km/h
791 21-01-2011 14:10:02 0.7 C 3 g/m*3 0.7 C 0 km/h
792 21-01-2011 14:22:01 0.6 C 2.98 g/m*3 0.6 C 0 km/h
793 21-01-2011 14:34:02 1.6 C 3.03 g/m*3 1.6 C 0 km/h
794 21-01-2011 14:46:01 1.7 C 2.99 g/m*3 1.7 C 0 km/h
795 21-01-2011 14:58:01 1.8 C 3.01 g/m*3 1.8 C 0 km/h
796 21-01-2011 15:10:02 1.5 C 2.95 g/m*3 1.5 C 0 km/h
797 21-01-2011 15:22:02 1.3 C 3.02 g/m*3 1.3 C 0 km/h
798 21-01-2011 15:34:01 1 C 3.01 g/m*3 1 C 0 km/h
799 21-01-2011 15:46:02 0.6 C 3.03 g/m*3 0.6 C 0 km/h
800 21-01-2011 15:58:02 0.7 C 3.05 g/m*3 0.7 C 0 km/h
Sensor: Nr:Datum:Temp:Abs-Feuchte:Windchill:Wind:
Aussen-T/F 801 21-01-2011 16:10:01 0.8 C 3.12 g/m*3 0.8 C 0 km/h
802 21-01-2011 16:22:02 0.5 C 3.11 g/m*3 0.5 C 0 km/h
803 21-01-2011 16:34:01 0 C 3.1 g/m*3 0 C 0 km/h
804 21-01-2011 16:46:02 -0.2 C 3.11 g/m*3 -0.2 C 0 km/h
805 21-01-2011 16:58:02 -0.2 C 3.2 g/m*3 -0.2 C 0 km/h
806 21-01-2011 17:10:02 -0.4 C 3.2 g/m*3 -0.4 C 0 km/h
807 21-01-2011 17:22:02 -0.3 C 3.27 g/m*3 -0.3 C 0 km/h
808 21-01-2011 17:34:02 -0.3 C 3.27 g/m*3 -0.3 C 0 km/h
809 21-01-2011 17:46:02 -0.1 C 3.27 g/m*3 -0.1 C 0 km/h
810 21-01-2011 17:58:02 0 C 3.25 g/m*3 0 C 0 km/h
811 21-01-2011 18:10:02 0 C 3.29 g/m*3 0 C 0 km/h
812 21-01-2011 18:22:02 -0.1 C 3.27 g/m*3 -0.1 C 0 km/h
813 21-01-2011 18:34:02 -0.2 C 3.25 g/m*3 -0.2 C 0 km/h
814 21-01-2011 18:46:02 -0.2 C 3.25 g/m*3 -0.2 C 0 km/h
815 21-01-2011 18:58:02 -0.2 C 3.25 g/m*3 -0.2 C 0 km/h
816 21-01-2011 19:10:02 -0.2 C 3.25 g/m*3 -0.2 C 0 km/h
817 21-01-2011 19:22:02 -0.4 C 3.25 g/m*3 -0.4 C 0 km/h
818 21-01-2011 19:34:03 -0.4 C 3.25 g/m*3 -0.4 C 0 km/h
819 21-01-2011 19:46:01 -0.5 C 3.23 g/m*3 -0.5 C 0 km/h
820 21-01-2011 19:58:01 -0.5 C 3.28 g/m*3 -0.5 C 0 km/h
821 21-01-2011 20:10:02 -0.5 C 3.28 g/m*3 -0.5 C 0 km/h
822 21-01-2011 20:22:01 -0.4 C 3.39 g/m*3 -0.4 C 0 km/h
823 21-01-2011 20:34:01 -0.4 C 3.44 g/m*3 -0.4 C 0 km/h
824 21-01-2011 20:46:01 -0.4 C 3.44 g/m*3 -0.4 C 0 km/h
825 21-01-2011 20:58:01 -0.4 C 3.44 g/m*3 -0.4 C 0 km/h
Sensor: Nr:Datum:Temp:Abs-Feuchte:Windchill:Wind:
Aussen-T/F 826 21-01-2011 21:10:02 -0.7 C 3.55 g/m*3 -0.7 C 0 km/h
827 21-01-2011 21:22:01 -0.7 C 3.6 g/m*3 -0.7 C 0 km/h
828 21-01-2011 21:34:02 -0.8 C 3.62 g/m*3 -0.8 C 0 km/h
829 21-01-2011 21:46:01 -0.9 C 3.6 g/m*3 -0.9 C 0 km/h
830 21-01-2011 21:58:01 -0.8 C 3.67 g/m*3 -0.8 C 0 km/h
831 21-01-2011 22:10:02 -0.7 C 3.69 g/m*3 -0.7 C 0 km/h
832 21-01-2011 22:22:02 -0.6 C 3.72 g/m*3 -0.6 C 0 km/h
833 21-01-2011 22:34:01 -0.6 C 3.72 g/m*3 -0.6 C 0 km/h
834 21-01-2011 22:46:02 -0.5 C 3.7 g/m*3 -0.5 C 0 km/h
835 21-01-2011 22:58:02 -0.5 C 3.7 g/m*3 -0.5 C 0 km/h
836 21-01-2011 23:10:01 -0.5 C 3.74 g/m*3 -0.5 C 0 km/h
837 21-01-2011 23:22:02 -0.5 C 3.79 g/m*3 -0.5 C 0 km/h
838 21-01-2011 23:34:01 -0.5 C 3.79 g/m*3 -0.5 C 0 km/h
839 21-01-2011 23:47:04 -0.5 C 3.79 g/m*3 -0.5 C 0 km/h
840 21-01-2011 23:59:04 -0.4 C 3.86 g/m*3 -0.4 C 0 km/h
841 22-01-2011 00:11:04 -0.4 C 3.86 g/m*3 -0.4 C 0 km/h
842 22-01-2011 00:23:04 -0.4 C 3.86 g/m*3 -0.4 C 0 km/h
843 22-01-2011 00:35:04 -0.4 C 3.86 g/m*3 -0.4 C 0 km/h
844 22-01-2011 00:47:04 -0.4 C 3.86 g/m*3 -0.4 C 0 km/h
845 22-01-2011 00:59:04 -0.4 C 3.86 g/m*3 -0.4 C 0 km/h
846 22-01-2011 01:11:04 -0.4 C 3.86 g/m*3 -0.4 C 0 km/h
847 22-01-2011 01:23:05 -0.4 C 3.86 g/m*3 -0.4 C 0 km/h
848 22-01-2011 01:35:05 -0.4 C 3.86 g/m*3 -0.4 C 0 km/h
849 22-01-2011 01:47:05 -0.4 C 3.86 g/m*3 -0.4 C 0 km/h
850 22-01-2011 01:59:05 -0.4 C 3.86 g/m*3 -0.4 C 0 km/h
Sensor: Nr:Datum:Temp:Abs-Feuchte:Windchill:Wind:
Aussen-T/F 851 22-01-2011 02:11:05 -0.4 C 3.86 g/m*3 -0.4 C 0 km/h
852 22-01-2011 02:23:05 -0.4 C 3.86 g/m*3 -0.4 C 0 km/h
853 22-01-2011 02:35:05 -0.4 C 3.86 g/m*3 -0.4 C 0 km/h
854 22-01-2011 02:47:05 -0.4 C 3.86 g/m*3 -0.4 C 0 km/h
855 22-01-2011 02:59:05 -0.4 C 3.86 g/m*3 -0.4 C 0 km/h
856 22-01-2011 03:11:05 -0.4 C 3.86 g/m*3 -0.4 C 0 km/h
857 22-01-2011 03:23:05 -0.4 C 3.86 g/m*3 -0.4 C 0 km/h
858 22-01-2011 03:35:05 -0.4 C 3.86 g/m*3 -0.4 C 0 km/h
859 22-01-2011 03:47:05 -0.4 C 3.86 g/m*3 -0.4 C 0 km/h
860 22-01-2011 03:59:05 -0.4 C 3.86 g/m*3 -0.4 C 0 km/h
861 22-01-2011 04:11:05 -0.4 C 3.86 g/m*3 -0.4 C 0 km/h
862 22-01-2011 04:23:05 -0.4 C 3.86 g/m*3 -0.4 C 0 km/h
863 22-01-2011 04:35:05 -0.4 C 3.86 g/m*3 -0.4 C 0 km/h
864 22-01-2011 04:47:05 -0.4 C 3.86 g/m*3 -0.4 C 0 km/h
865 22-01-2011 04:59:05 -0.4 C 3.86 g/m*3 -0.4 C 0 km/h
866 22-01-2011 05:11:05 -0.4 C 3.86 g/m*3 -0.4 C 0 km/h
867 22-01-2011 05:23:05 -0.4 C 3.86 g/m*3 -0.4 C 0 km/h
868 22-01-2011 05:35:06 -0.4 C 3.86 g/m*3 -0.4 C 0 km/h
869 22-01-2011 05:47:06 -0.4 C 3.86 g/m*3 -0.4 C 0 km/h
870 22-01-2011 05:59:06 -0.4 C 3.86 g/m*3 -0.4 C 0 km/h
871 22-01-2011 06:11:06 -0.4 C 3.86 g/m*3 -0.4 C 0 km/h
872 22-01-2011 06:23:06 -0.4 C 3.86 g/m*3 -0.4 C 0 km/h
873 22-01-2011 06:35:06 -0.4 C 3.86 g/m*3 -0.4 C 0 km/h
874 22-01-2011 06:47:06 -0.4 C 3.86 g/m*3 -0.4 C 0 km/h
875 22-01-2011 06:59:06 -0.4 C 3.86 g/m*3 -0.4 C 0 km/h
Sensor: Nr:Datum:Temp:Abs-Feuchte:Windchill:Wind:
Aussen-T/F 876 22-01-2011 07:11:06 -0.4 C 3.86 g/m*3 -0.4 C 0 km/h
877 22-01-2011 07:23:06 -0.4 C 3.86 g/m*3 -0.4 C 0 km/h
878 22-01-2011 07:35:06 -0.4 C 3.86 g/m*3 -0.4 C 0 km/h
879 22-01-2011 07:47:06 -0.4 C 3.86 g/m*3 -0.4 C 0 km/h
880 22-01-2011 07:59:06 -0.4 C 3.86 g/m*3 -0.4 C 0 km/h
881 22-01-2011 08:11:06 -0.4 C 3.86 g/m*3 -0.4 C 0 km/h
882 22-01-2011 08:23:06 -0.4 C 3.86 g/m*3 -0.4 C 0 km/h
883 22-01-2011 08:35:06 -0.4 C 3.86 g/m*3 -0.4 C 0 km/h
884 22-01-2011 08:47:06 -0.4 C 3.86 g/m*3 -0.4 C 0 km/h
885 22-01-2011 08:59:06 0 C 3.97 g/m*3 0 C 0 km/h
886 22-01-2011 09:11:06 0 C 3.97 g/m*3 0 C 0 km/h
887 22-01-2011 09:23:06 0 C 3.97 g/m*3 0 C 0 km/h
888 22-01-2011 09:35:07 0 C 3.97 g/m*3 0 C 0 km/h
889 22-01-2011 09:47:07 0 C 3.97 g/m*3 0 C 0 km/h
890 22-01-2011 09:59:07 0 C 3.97 g/m*3 0 C 0 km/h
891 22-01-2011 10:11:07 0 C 3.97 g/m*3 0 C 0 km/h
892 22-01-2011 10:23:03 0.9 C 3.92 g/m*3 0.9 C 0 km/h
893 22-01-2011 10:35:04 1.2 C 3.84 g/m*3 1.2 C 0 km/h
894 22-01-2011 10:47:02 1.1 C 3.76 g/m*3 1.1 C 0 km/h
895 22-01-2011 10:59:02 1.4 C 3.79 g/m*3 1.4 C 0 km/h
896 22-01-2011 11:11:02 1.4 C 3.79 g/m*3 1.4 C 0 km/h
897 22-01-2011 11:23:02 1.3 C 3.71 g/m*3 1.3 C 0 km/h
898 22-01-2011 11:35:02 1.5 C 3.76 g/m*3 1.5 C 0 km/h
899 22-01-2011 11:47:02 1.4 C 3.68 g/m*3 1.4 C 0 km/h
900 22-01-2011 11:59:03 1.4 C 3.68 g/m*3 1.4 C 0 km/h
Sensor: Nr:Datum:Temp:Abs-Feuchte:Windchill:Wind:
Aussen-T/F 901 22-01-2011 12:11:01 1.4 C 3.68 g/m*3 1.4 C 0 km/h
902 22-01-2011 12:23:01 1.7 C 3.7 g/m*3 1.7 C 0 km/h
903 22-01-2011 12:35:02 1.7 C 3.7 g/m*3 1.7 C 0 km/h
904 22-01-2011 12:47:02 1.8 C 3.67 g/m*3 1.8 C 0 km/h
905 22-01-2011 12:59:02 2 C 3.67 g/m*3 2 C 0 km/h
906 22-01-2011 13:11:02 1.9 C 3.59 g/m*3 1.9 C 0 km/h
907 22-01-2011 13:23:02 1.9 C 3.59 g/m*3 1.9 C 0 km/h
908 22-01-2011 13:35:02 1.4 C 3.73 g/m*3 1.4 C 0 km/h
909 22-01-2011 13:47:02 1.7 C 3.87 g/m*3 1.7 C 0 km/h
910 22-01-2011 13:59:02 1.7 C 3.87 g/m*3 1.7 C 0 km/h
911 22-01-2011 14:11:03 1.8 C 3.95 g/m*3 1.8 C 0 km/h
912 22-01-2011 14:23:02 1.8 C 4 g/m*3 1.8 C 0 km/h
913 22-01-2011 14:35:02 2 C 4.06 g/m*3 2 C 0 km/h
914 22-01-2011 14:47:01 2 C 4 g/m*3 2 C 0 km/h
915 22-01-2011 14:59:01 1.6 C 3.89 g/m*3 1.6 C 0 km/h
916 22-01-2011 15:11:02 1.4 C 3.84 g/m*3 1.4 C 0 km/h
917 22-01-2011 15:23:01 1.6 C 3.95 g/m*3 1.6 C 0 km/h
918 22-01-2011 15:35:02 1.6 C 3.95 g/m*3 1.6 C 0 km/h
919 22-01-2011 15:47:01 1.6 C 3.95 g/m*3 1.6 C 0 km/h
920 22-01-2011 15:59:01 1.6 C 3.89 g/m*3 1.6 C 0 km/h
921 22-01-2011 16:11:02 1.5 C 3.87 g/m*3 1.5 C 0 km/h
922 22-01-2011 16:23:01 1.4 C 3.89 g/m*3 1.4 C 0 km/h
923 22-01-2011 16:35:02 1.3 C 3.87 g/m*3 1.3 C 0 km/h
924 22-01-2011 16:47:02 1.3 C 3.87 g/m*3 1.3 C 0 km/h
925 22-01-2011 16:59:02 0.9 C 3.81 g/m*3 0.9 C 0 km/h
Sensor: Nr:Datum:Temp:Abs-Feuchte:Windchill:Wind:
Aussen-T/F 926 22-01-2011 17:11:02 0.8 C 3.84 g/m*3 0.8 C 0 km/h
927 22-01-2011 17:23:02 0.7 C 3.92 g/m*3 0.7 C 0 km/h
928 22-01-2011 17:35:02 0.7 C 3.92 g/m*3 0.7 C 0 km/h
929 22-01-2011 17:47:01 0.7 C 3.92 g/m*3 0.7 C 0 km/h
930 22-01-2011 17:59:01 0.7 C 3.92 g/m*3 0.7 C 0 km/h
931 22-01-2011 18:11:01 0.7 C 3.92 g/m*3 0.7 C 0 km/h
932 22-01-2011 18:23:01 0.7 C 3.92 g/m*3 0.7 C 0 km/h
933 22-01-2011 18:35:02 0.7 C 3.92 g/m*3 0.7 C 0 km/h
934 22-01-2011 18:47:02 0.7 C 3.92 g/m*3 0.7 C 0 km/h
935 22-01-2011 18:59:02 0 C 3.97 g/m*3 0 C 0 km/h
936 22-01-2011 19:11:02 0.2 C 4.03 g/m*3 0.2 C 0 km/h
937 22-01-2011 19:23:02 0.3 C 4.06 g/m*3 0.3 C 0 km/h
938 22-01-2011 19:35:02 0.4 C 4.08 g/m*3 0.4 C 0 km/h
939 22-01-2011 19:47:02 0.4 C 4.03 g/m*3 0.4 C 0 km/h
940 22-01-2011 19:59:03 0.4 C 4.03 g/m*3 0.4 C 0 km/h
941 22-01-2011 20:11:02 0.4 C 3.98 g/m*3 0.4 C 0 km/h
942 22-01-2011 20:23:02 0.4 C 3.98 g/m*3 0.4 C 0 km/h
943 22-01-2011 20:35:02 0.4 C 4.03 g/m*3 0.4 C 0 km/h
944 22-01-2011 20:47:02 0.4 C 4.03 g/m*3 0.4 C 0 km/h
945 22-01-2011 20:59:02 0.3 C 4.01 g/m*3 0.3 C 0 km/h
946 22-01-2011 21:11:02 0.4 C 4.03 g/m*3 0.4 C 0 km/h
947 22-01-2011 21:23:01 0.4 C 4.03 g/m*3 0.4 C 0 km/h
948 22-01-2011 21:35:02 0.3 C 4.01 g/m*3 0.3 C 0 km/h
949 22-01-2011 21:47:02 0.3 C 4.06 g/m*3 0.3 C 0 km/h
950 22-01-2011 21:59:02 0.2 C 4.03 g/m*3 0.2 C 0 km/h
Sensor: Nr:Datum:Temp:Abs-Feuchte:Windchill:Wind:
Aussen-T/F 951 22-01-2011 22:11:02 0.3 C 4.06 g/m*3 0.3 C 0 km/h
952 22-01-2011 22:24:03 0.3 C 4.06 g/m*3 0.3 C 0 km/h
953 22-01-2011 22:36:03 0.2 C 4.03 g/m*3 0.2 C 0 km/h
954 22-01-2011 22:48:03 0.2 C 4.03 g/m*3 0.2 C 0 km/h
955 22-01-2011 23:00:03 0 C 3.97 g/m*3 0 C 0 km/h
956 22-01-2011 23:12:03 0 C 3.97 g/m*3 0 C 0 km/h
957 22-01-2011 23:24:03 0 C 3.97 g/m*3 0 C 0 km/h
958 22-01-2011 23:36:03 0 C 3.97 g/m*3 0 C 0 km/h
959 22-01-2011 23:48:03 0 C 3.97 g/m*3 0 C 0 km/h
960 23-01-2011 00:00:03 0.2 C 4.03 g/m*3 0.2 C 0 km/h
961 23-01-2011 00:12:03 0.1 C 4 g/m*3 0.1 C 0 km/h
962 23-01-2011 00:24:03 0.2 C 4.03 g/m*3 0.2 C 0 km/h
963 23-01-2011 00:36:03 0.3 C 4.06 g/m*3 0.3 C 0 km/h
964 23-01-2011 00:48:03 0.3 C 4.06 g/m*3 0.3 C 0 km/h
965 23-01-2011 01:00:03 0.2 C 4.03 g/m*3 0.2 C 0 km/h
966 23-01-2011 01:12:03 0.3 C 4.06 g/m*3 0.3 C 0 km/h
967 23-01-2011 01:24:03 0.2 C 4.03 g/m*3 0.2 C 0 km/h
968 23-01-2011 01:36:03 0.2 C 4.03 g/m*3 0.2 C 0 km/h
969 23-01-2011 01:48:03 0.2 C 4.03 g/m*3 0.2 C 0 km/h
970 23-01-2011 02:00:03 0.2 C 4.03 g/m*3 0.2 C 0 km/h
971 23-01-2011 02:12:04 0.3 C 4.06 g/m*3 0.3 C 0 km/h
972 23-01-2011 02:24:04 0.2 C 4.03 g/m*3 0.2 C 0 km/h
973 23-01-2011 02:36:04 0.3 C 4.06 g/m*3 0.3 C 0 km/h
974 23-01-2011 02:48:04 0.4 C 4.08 g/m*3 0.4 C 0 km/h
975 23-01-2011 03:00:04 0.4 C 4.03 g/m*3 0.4 C 0 km/h
Sensor: Nr:Datum:Temp:Abs-Feuchte:Windchill:Wind:
Aussen-T/F 976 23-01-2011 03:12:04 0.5 C 4.06 g/m*3 0.5 C 0 km/h
977 23-01-2011 03:24:04 0.4 C 4.03 g/m*3 0.4 C 0 km/h
978 23-01-2011 03:36:04 0.4 C 4.03 g/m*3 0.4 C 0 km/h
979 23-01-2011 03:48:04 0.5 C 4.06 g/m*3 0.5 C 0 km/h
980 23-01-2011 04:00:04 0.5 C 4.06 g/m*3 0.5 C 0 km/h
981 23-01-2011 04:12:04 0.5 C 4.06 g/m*3 0.5 C 0 km/h
982 23-01-2011 04:24:04 0.4 C 4.03 g/m*3 0.4 C 0 km/h
983 23-01-2011 04:36:04 0.3 C 4.06 g/m*3 0.3 C 0 km/h
984 23-01-2011 04:48:04 0.3 C 4.06 g/m*3 0.3 C 0 km/h
985 23-01-2011 05:00:04 0.2 C 4.08 g/m*3 0.2 C 0 km/h
986 23-01-2011 05:12:04 0.2 C 4.18 g/m*3 0.2 C 0 km/h
987 23-01-2011 05:24:04 0.2 C 4.22 g/m*3 0.2 C 0 km/h
988 23-01-2011 05:36:04 0.2 C 4.27 g/m*3 0.2 C 0 km/h
989 23-01-2011 05:48:04 0.3 C 4.3 g/m*3 0.3 C 0 km/h
990 23-01-2011 06:00:04 0.3 C 4.35 g/m*3 0.3 C 0 km/h
991 23-01-2011 06:12:05 0.4 C 4.38 g/m*3 0.4 C 0 km/h
992 23-01-2011 06:24:05 0.4 C 4.38 g/m*3 0.4 C 0 km/h
993 23-01-2011 06:36:05 0.5 C 4.41 g/m*3 0.5 C 0 km/h
994 23-01-2011 06:48:05 0.5 C 4.46 g/m*3 0.5 C 0 km/h
995 23-01-2011 07:00:05 0.6 C 4.49 g/m*3 0.6 C 0 km/h
996 23-01-2011 07:12:05 0.6 C 4.49 g/m*3 0.6 C 0 km/h
997 23-01-2011 07:24:05 0.7 C 4.53 g/m*3 0.7 C 0 km/h
998 23-01-2011 07:36:05 0.7 C 4.53 g/m*3 0.7 C 0 km/h
999 23-01-2011 07:48:05 0.7 C 4.53 g/m*3 0.7 C 0 km/h
1000 23-01-2011 08:00:05 0.8 C 4.56 g/m*3 0.8 C 0 km/h
Sensor: Nr:Datum:Temp:Abs-Feuchte:Windchill:Wind:
Aussen-T/F 1001 23-01-2011 08:12:05 0.8 C 4.56 g/m*3 0.8 C 0 km/h
1002 23-01-2011 08:24:05 0.9 C 4.64 g/m*3 0.9 C 0 km/h
1003 23-01-2011 08:36:05 1.1 C 4.65 g/m*3 1.1 C 0 km/h
1004 23-01-2011 08:48:05 1.1 C 4.65 g/m*3 1.1 C 0 km/h
1005 23-01-2011 09:00:05 1.3 C 4.72 g/m*3 1.3 C 0 km/h
1006 23-01-2011 09:12:05 1.4 C 4.75 g/m*3 1.4 C 0 km/h
1007 23-01-2011 09:24:05 1.4 C 4.69 g/m*3 1.4 C 0 km/h
1008 23-01-2011 09:36:05 1.5 C 4.73 g/m*3 1.5 C 0 km/h
1009 23-01-2011 09:48:02 1.7 C 4.68 g/m*3 1.7 C 0 km/h
1010 23-01-2011 10:00:02 1.8 C 4.6 g/m*3 1.8 C 0 km/h
1011 23-01-2011 10:12:02 2 C 4.61 g/m*3 2 C 0 km/h
1012 23-01-2011 10:24:02 2 C 4.5 g/m*3 2 C 0 km/h
1013 23-01-2011 10:36:02 1.9 C 4.53 g/m*3 1.9 C 0 km/h
1014 23-01-2011 10:48:02 1.9 C 4.53 g/m*3 1.9 C 0 km/h
1015 23-01-2011 11:00:02 1.8 C 4.49 g/m*3 1.8 C 0 km/h
1016 23-01-2011 11:12:01 2 C 4.5 g/m*3 2 C 0 km/h
1017 23-01-2011 11:24:02 2 C 4.5 g/m*3 2 C 0 km/h
1018 23-01-2011 11:36:01 2.1 C 4.59 g/m*3 2.1 C 0 km/h
1019 23-01-2011 11:48:02 2.2 C 4.62 g/m*3 2.2 C 0 km/h
1020 23-01-2011 12:00:02 2.5 C 4.66 g/m*3 2.5 C 0 km/h
1021 23-01-2011 12:12:01 2.1 C 4.53 g/m*3 2.1 C 0 km/h
1022 23-01-2011 12:24:01 2 C 4.56 g/m*3 2 C 0 km/h
1023 23-01-2011 12:36:01 2.1 C 4.64 g/m*3 2.1 C 0 km/h
1024 23-01-2011 12:48:02 2.1 C 4.7 g/m*3 2.1 C 0 km/h
1025 23-01-2011 13:00:03 2.2 C 4.73 g/m*3 2.2 C 0 km/h
Sensor: Nr:Datum:Temp:Abs-Feuchte:Windchill:Wind:
Aussen-T/F 1026 23-01-2011 13:12:01 2.3 C 4.76 g/m*3 2.3 C 0 km/h
1027 23-01-2011 13:24:02 2.2 C 4.73 g/m*3 2.2 C 0 km/h
1028 23-01-2011 13:36:02 2.2 C 4.79 g/m*3 2.2 C 0 km/h
1029 23-01-2011 13:48:01 2.2 C 4.79 g/m*3 2.2 C 0 km/h
1030 23-01-2011 14:00:01 2.2 C 4.79 g/m*3 2.2 C 0 km/h
1031 23-01-2011 14:12:02 2.4 C 4.85 g/m*3 2.4 C 0 km/h
1032 23-01-2011 14:24:01 2.4 C 4.85 g/m*3 2.4 C 0 km/h
1033 23-01-2011 14:36:01 2.5 C 4.94 g/m*3 2.5 C 0 km/h
1034 23-01-2011 14:48:01 2.5 C 4.94 g/m*3 2.5 C 0 km/h
1035 23-01-2011 15:00:01 2.5 C 4.94 g/m*3 2.5 C 0 km/h
1036 23-01-2011 15:12:02 2.3 C 4.88 g/m*3 2.3 C 0 km/h
1037 23-01-2011 15:24:01 2.1 C 4.81 g/m*3 2.1 C 0 km/h
1038 23-01-2011 15:36:02 2.3 C 4.93 g/m*3 2.3 C 0 km/h
1039 23-01-2011 15:48:01 2.3 C 4.93 g/m*3 2.3 C 0 km/h
1040 23-01-2011 16:00:01 2.2 C 4.9 g/m*3 2.2 C 0 km/h
1041 23-01-2011 16:12:02 2.2 C 4.96 g/m*3 2.2 C 0 km/h
1042 23-01-2011 16:24:01 2.2 C 4.96 g/m*3 2.2 C 0 km/h
1043 23-01-2011 16:36:02 2.2 C 5.01 g/m*3 2.2 C 0 km/h
1044 23-01-2011 16:48:01 2.2 C 5.01 g/m*3 2.2 C 0 km/h
1045 23-01-2011 17:00:01 2.2 C 5.01 g/m*3 2.2 C 0 km/h
1046 23-01-2011 17:12:02 2.2 C 5.01 g/m*3 2.2 C 0 km/h
1047 23-01-2011 17:24:02 2.2 C 5.07 g/m*3 2.2 C 0 km/h
1048 23-01-2011 17:36:01 2.1 C 5.04 g/m*3 2.1 C 0 km/h
1049 23-01-2011 17:48:01 2.1 C 5.04 g/m*3 2.1 C 0 km/h
1050 23-01-2011 18:00:01 2.1 C 5.04 g/m*3 2.1 C 0 km/h
Sensor: Nr:Datum:Temp:Abs-Feuchte:Windchill:Wind:
Aussen-T/F 1051 23-01-2011 18:12:02 2.1 C 5.04 g/m*3 2.1 C 0 km/h
1052 23-01-2011 18:24:02 2.2 C 5.07 g/m*3 2.2 C 0 km/h
1053 23-01-2011 18:36:01 2.1 C 5.09 g/m*3 2.1 C 0 km/h
1054 23-01-2011 18:48:02 2.1 C 5.09 g/m*3 2.1 C 0 km/h
1055 23-01-2011 19:00:02 2.1 C 5.09 g/m*3 2.1 C 0 km/h
1056 23-01-2011 19:12:01 2.2 C 5.13 g/m*3 2.2 C 0 km/h
1057 23-01-2011 19:24:02 2.2 C 5.13 g/m*3 2.2 C 0 km/h
1058 23-01-2011 19:36:03 2.2 C 5.13 g/m*3 2.2 C 0 km/h
1059 23-01-2011 19:48:03 2.2 C 5.13 g/m*3 2.2 C 0 km/h
1060 23-01-2011 20:00:03 2.2 C 5.13 g/m*3 2.2 C 0 km/h
1061 23-01-2011 20:12:02 2.2 C 5.13 g/m*3 2.2 C 0 km/h
1062 23-01-2011 20:24:02 2.2 C 5.13 g/m*3 2.2 C 0 km/h
1063 23-01-2011 20:36:02 2.2 C 5.13 g/m*3 2.2 C 0 km/h
1064 23-01-2011 20:48:02 2.3 C 5.22 g/m*3 2.3 C 0 km/h
1065 23-01-2011 21:00:02 2.3 C 5.22 g/m*3 2.3 C 0 km/h
1066 23-01-2011 21:12:02 2.3 C 5.22 g/m*3 2.3 C 0 km/h
1067 23-01-2011 21:24:03 2.2 C 5.18 g/m*3 2.2 C 0 km/h
1068 23-01-2011 21:36:02 2.2 C 5.18 g/m*3 2.2 C 0 km/h
1069 23-01-2011 21:49:05 2.2 C 5.18 g/m*3 2.2 C 0 km/h
1070 23-01-2011 22:01:05 2.3 C 5.22 g/m*3 2.3 C 0 km/h
1071 23-01-2011 22:13:05 2.2 C 5.18 g/m*3 2.2 C 0 km/h
1072 23-01-2011 22:25:05 2.3 C 5.22 g/m*3 2.3 C 0 km/h
1073 23-01-2011 22:37:05 2.3 C 5.22 g/m*3 2.3 C 0 km/h
1074 23-01-2011 22:49:05 2.3 C 5.22 g/m*3 2.3 C 0 km/h
1075 23-01-2011 23:01:05 2.3 C 5.22 g/m*3 2.3 C 0 km/h
Sensor: Nr:Datum:Temp:Abs-Feuchte:Windchill:Wind:
Aussen-T/F 1076 23-01-2011 23:13:05 2.3 C 5.22 g/m*3 2.3 C 0 km/h
1077 23-01-2011 23:25:05 2.4 C 5.25 g/m*3 2.4 C 0 km/h
1078 23-01-2011 23:37:05 2.4 C 5.25 g/m*3 2.4 C 0 km/h
1079 23-01-2011 23:49:05 2.4 C 5.25 g/m*3 2.4 C 0 km/h
1080 24-01-2011 00:01:05 2.4 C 5.25 g/m*3 2.4 C 0 km/h
1081 24-01-2011 00:13:05 2.4 C 5.25 g/m*3 2.4 C 0 km/h
1082 24-01-2011 00:25:05 2.4 C 5.25 g/m*3 2.4 C 0 km/h
1083 24-01-2011 00:37:05 2.4 C 5.25 g/m*3 2.4 C 0 km/h
1084 24-01-2011 00:49:05 2.5 C 5.29 g/m*3 2.5 C 0 km/h
1085 24-01-2011 01:01:05 2.5 C 5.29 g/m*3 2.5 C 0 km/h
1086 24-01-2011 01:13:05 2.5 C 5.29 g/m*3 2.5 C 0 km/h
1087 24-01-2011 01:25:05 2.6 C 5.38 g/m*3 2.6 C 0 km/h
1088 24-01-2011 01:37:06 2.7 C 5.42 g/m*3 2.7 C 0 km/h
1089 24-01-2011 01:49:06 2.6 C 5.38 g/m*3 2.6 C 0 km/h
1090 24-01-2011 02:01:06 2.6 C 5.38 g/m*3 2.6 C 0 km/h
1091 24-01-2011 02:13:06 2.6 C 5.38 g/m*3 2.6 C 0 km/h
1092 24-01-2011 02:25:06 2.5 C 5.35 g/m*3 2.5 C 0 km/h
1093 24-01-2011 02:37:06 2.5 C 5.35 g/m*3 2.5 C 0 km/h
1094 24-01-2011 02:49:06 2.6 C 5.38 g/m*3 2.6 C 0 km/h
1095 24-01-2011 03:01:06 2.2 C 5.18 g/m*3 2.2 C 0 km/h
1096 24-01-2011 03:13:06 2.1 C 5.15 g/m*3 2.1 C 0 km/h
1097 24-01-2011 03:25:06 2.2 C 5.18 g/m*3 2.2 C 0 km/h
1098 24-01-2011 03:37:06 2.1 C 5.15 g/m*3 2.1 C 0 km/h
1099 24-01-2011 03:49:06 1.5 C 4.99 g/m*3 1.5 C 0 km/h
1100 24-01-2011 04:01:06 1.4 C 4.96 g/m*3 1.4 C 0 km/h
Sensor: Nr:Datum:Temp:Abs-Feuchte:Windchill:Wind:
Aussen-T/F 1101 24-01-2011 04:13:06 2.2 C 5.18 g/m*3 2.2 C 0 km/h
1102 24-01-2011 04:25:06 2.2 C 5.24 g/m*3 2.2 C 0 km/h
1103 24-01-2011 04:37:06 2.4 C 5.31 g/m*3 2.4 C 0 km/h
1104 24-01-2011 04:49:06 2.4 C 5.31 g/m*3 2.4 C 0 km/h
1105 24-01-2011 05:01:06 2.4 C 5.31 g/m*3 2.4 C 0 km/h
1106 24-01-2011 05:13:06 2.5 C 5.35 g/m*3 2.5 C 0 km/h
1107 24-01-2011 05:25:06 2.5 C 5.35 g/m*3 2.5 C 0 km/h
1108 24-01-2011 05:37:07 2.5 C 5.35 g/m*3 2.5 C 0 km/h
1109 24-01-2011 05:49:07 2.5 C 5.35 g/m*3 2.5 C 0 km/h
1110 24-01-2011 06:01:07 2.5 C 5.35 g/m*3 2.5 C 0 km/h
1111 24-01-2011 06:13:07 2.5 C 5.35 g/m*3 2.5 C 0 km/h
1112 24-01-2011 06:25:07 2.5 C 5.35 g/m*3 2.5 C 0 km/h
1113 24-01-2011 06:37:03 2.5 C 5.35 g/m*3 2.5 C 0 km/h
1114 24-01-2011 06:49:02 2.5 C 5.35 g/m*3 2.5 C 0 km/h
1115 24-01-2011 07:01:02 2.7 C 5.36 g/m*3 2.7 C 0 km/h
1116 24-01-2011 07:13:02 2.8 C 5.4 g/m*3 2.8 C 0 km/h
1117 24-01-2011 07:25:02 2.8 C 5.34 g/m*3 2.8 C 0 km/h
1118 24-01-2011 07:37:01 2.8 C 5.34 g/m*3 2.8 C 0 km/h
1119 24-01-2011 07:49:02 2.8 C 5.22 g/m*3 2.8 C 0 km/h
1120 24-01-2011 08:01:02 2.6 C 5.09 g/m*3 2.6 C 0 km/h
1121 24-01-2011 08:13:02 2.7 C 5.13 g/m*3 2.7 C 0 km/h
1122 24-01-2011 08:25:02 2.8 C 5.16 g/m*3 2.8 C 0 km/h
1123 24-01-2011 08:37:01 2.9 C 5.02 g/m*3 2.9 C 0 km/h
1124 24-01-2011 08:49:02 2.8 C 4.93 g/m*3 2.8 C 0 km/h
1125 24-01-2011 09:01:01 2.8 C 4.87 g/m*3 2.8 C 0 km/h
Sensor: Nr:Datum:Temp:Abs-Feuchte:Windchill:Wind:
Aussen-T/F 1126 24-01-2011 09:13:01 3 C 4.82 g/m*3 3 C 0 km/h
1127 24-01-2011 09:25:02 2.9 C 4.78 g/m*3 2.9 C 0 km/h
1128 24-01-2011 09:37:01 3 C 4.7 g/m*3 3 C 0 km/h
1129 24-01-2011 09:49:02 2.9 C 4.61 g/m*3 2.9 C 0 km/h
1130 24-01-2011 10:01:02 3 C 4.58 g/m*3 3 C 0 km/h
1131 24-01-2011 10:13:02 3 C 4.58 g/m*3 3 C 0 km/h
1132 24-01-2011 10:25:02 3.2 C 4.7 g/m*3 3.2 C 0 km/h
1133 24-01-2011 10:37:02 3.2 C 4.58 g/m*3 3.2 C 0 km/h
1134 24-01-2011 10:49:02 3.2 C 4.58 g/m*3 3.2 C 0 km/h
1135 24-01-2011 11:01:02 3.2 C 4.52 g/m*3 3.2 C 0 km/h
1136 24-01-2011 11:13:02 3.2 C 4.58 g/m*3 3.2 C 0 km/h
1137 24-01-2011 11:25:01 3.4 C 4.58 g/m*3 3.4 C 0 km/h
1138 24-01-2011 11:37:02 3.6 C 4.58 g/m*3 3.6 C 0 km/h
1139 24-01-2011 11:49:02 3.9 C 4.61 g/m*3 3.9 C 0 km/h
1140 24-01-2011 12:01:02 4 C 4.64 g/m*3 4 C 0 km/h
1141 24-01-2011 12:13:02 4 C 4.51 g/m*3 4 C 0 km/h
1142 24-01-2011 12:25:02 4.1 C 4.61 g/m*3 4.1 C 0 km/h
1143 24-01-2011 12:37:02 4 C 4.64 g/m*3 4 C 0 km/h
1144 24-01-2011 12:49:02 4.1 C 4.61 g/m*3 4.1 C 0 km/h
1145 24-01-2011 13:01:02 4.1 C 4.67 g/m*3 4.1 C 0 km/h
1146 24-01-2011 13:13:02 4.4 C 4.77 g/m*3 4.4 C 0 km/h
1147 24-01-2011 13:25:02 4.4 C 4.7 g/m*3 4.4 C 0 km/h
1148 24-01-2011 13:37:02 4.5 C 4.67 g/m*3 4.5 C 0 km/h
1149 24-01-2011 13:49:02 4.4 C 4.7 g/m*3 4.4 C 0 km/h
1150 24-01-2011 14:01:02 4.4 C 4.7 g/m*3 4.4 C 0 km/h
Sensor: Nr:Datum:Temp:Abs-Feuchte:Windchill:Wind:
Aussen-T/F 1151 24-01-2011 14:13:02 4.2 C 4.64 g/m*3 4.2 C 0 km/h
1152 24-01-2011 14:25:02 4.1 C 4.67 g/m*3 4.1 C 0 km/h
1153 24-01-2011 14:37:02 4.2 C 4.77 g/m*3 4.2 C 0 km/h
1154 24-01-2011 14:49:02 4.1 C 4.74 g/m*3 4.1 C 0 km/h
1155 24-01-2011 15:01:02 4 C 4.7 g/m*3 4 C 0 km/h
1156 24-01-2011 15:13:02 4 C 4.7 g/m*3 4 C 0 km/h
1157 24-01-2011 15:25:02 3.9 C 4.86 g/m*3 3.9 C 0 km/h
1158 24-01-2011 15:37:02 4 C 4.83 g/m*3 4 C 0 km/h
1159 24-01-2011 15:49:02 4 C 4.83 g/m*3 4 C 0 km/h
1160 24-01-2011 16:01:01 3.9 C 4.93 g/m*3 3.9 C 0 km/h
1161 24-01-2011 16:13:01 3.8 C 4.96 g/m*3 3.8 C 0 km/h
1162 24-01-2011 16:25:02 3.8 C 5.02 g/m*3 3.8 C 0 km/h
1163 24-01-2011 16:37:02 3.8 C 4.96 g/m*3 3.8 C 0 km/h
1164 24-01-2011 16:49:02 3.6 C 4.95 g/m*3 3.6 C 0 km/h
1165 24-01-2011 17:01:02 3.7 C 4.99 g/m*3 3.7 C 0 km/h
1166 24-01-2011 17:13:02 3.6 C 4.95 g/m*3 3.6 C 0 km/h
1167 24-01-2011 17:25:02 3.6 C 4.95 g/m*3 3.6 C 0 km/h
1168 24-01-2011 17:37:02 3.6 C 4.95 g/m*3 3.6 C 0 km/h
1169 24-01-2011 17:49:02 3.5 C 4.98 g/m*3 3.5 C 0 km/h
1170 24-01-2011 18:01:01 3.5 C 4.98 g/m*3 3.5 C 0 km/h
1171 24-01-2011 18:13:01 3.5 C 5.04 g/m*3 3.5 C 0 km/h
1172 24-01-2011 18:25:02 3.4 C 5.01 g/m*3 3.4 C 0 km/h
1173 24-01-2011 18:37:02 3.4 C 5.07 g/m*3 3.4 C 0 km/h
1174 24-01-2011 18:49:01 3.4 C 5.07 g/m*3 3.4 C 0 km/h
1175 24-01-2011 19:01:02 3.3 C 5.04 g/m*3 3.3 C 0 km/h
Sensor: Nr:Datum:Temp:Abs-Feuchte:Windchill:Wind:
Aussen-T/F 1176 24-01-2011 19:13:02 3.3 C 5.1 g/m*3 3.3 C 0 km/h
1177 24-01-2011 19:25:01 3.1 C 5.09 g/m*3 3.1 C 0 km/h
1178 24-01-2011 19:37:02 3.1 C 5.15 g/m*3 3.1 C 0 km/h
1179 24-01-2011 19:49:02 3.1 C 5.15 g/m*3 3.1 C 0 km/h
1180 24-01-2011 20:01:02 3.1 C 5.21 g/m*3 3.1 C 0 km/h
1181 24-01-2011 20:13:02 3.1 C 5.21 g/m*3 3.1 C 0 km/h
1182 24-01-2011 20:25:02 3.1 C 5.27 g/m*3 3.1 C 0 km/h
1183 24-01-2011 20:37:02 3.2 C 5.24 g/m*3 3.2 C 0 km/h
1184 24-01-2011 20:49:02 3.3 C 5.28 g/m*3 3.3 C 0 km/h
1185 24-01-2011 21:01:03 3.1 C 5.21 g/m*3 3.1 C 0 km/h
1186 24-01-2011 21:13:03 3.1 C 5.21 g/m*3 3.1 C 0 km/h
1187 24-01-2011 21:25:02 3.1 C 5.27 g/m*3 3.1 C 0 km/h
1188 24-01-2011 21:37:02 3 C 5.23 g/m*3 3 C 0 km/h
1189 24-01-2011 21:49:01 3.1 C 5.27 g/m*3 3.1 C 0 km/h
1190 24-01-2011 22:01:02 3.1 C 5.33 g/m*3 3.1 C 0 km/h
1191 24-01-2011 22:13:03 3.1 C 5.33 g/m*3 3.1 C 0 km/h
1192 24-01-2011 22:26:03 3.2 C 5.36 g/m*3 3.2 C 0 km/h
1193 24-01-2011 22:38:03 3.1 C 5.33 g/m*3 3.1 C 0 km/h
1194 24-01-2011 22:50:03 2.9 C 5.32 g/m*3 2.9 C 0 km/h
1195 24-01-2011 23:02:03 2.8 C 5.28 g/m*3 2.8 C 0 km/h
1196 24-01-2011 23:14:03 2.8 C 5.28 g/m*3 2.8 C 0 km/h
1197 24-01-2011 23:26:03 2.8 C 5.28 g/m*3 2.8 C 0 km/h
1198 24-01-2011 23:38:03 2.9 C 5.32 g/m*3 2.9 C 0 km/h
1199 24-01-2011 23:50:03 2.8 C 5.28 g/m*3 2.8 C 0 km/h
1200 25-01-2011 00:02:03 2.8 C 5.28 g/m*3 2.8 C 0 km/h
Sensor: Nr:Datum:Temp:Abs-Feuchte:Windchill:Wind:
Aussen-T/F 1201 25-01-2011 00:14:03 2.8 C 5.28 g/m*3 2.8 C 0 km/h
1202 25-01-2011 00:26:03 2.7 C 5.19 g/m*3 2.7 C 0 km/h
1203 25-01-2011 00:38:03 2.6 C 5.09 g/m*3 2.6 C 0 km/h
1204 25-01-2011 00:50:03 2.8 C 5.1 g/m*3 2.8 C 0 km/h
1205 25-01-2011 01:02:03 3.1 C 4.97 g/m*3 3.1 C 0 km/h
1206 25-01-2011 01:14:03 2.8 C 4.81 g/m*3 2.8 C 0 km/h
1207 25-01-2011 01:26:03 2.7 C 4.72 g/m*3 2.7 C 0 km/h
1208 25-01-2011 01:38:03 2.4 C 4.62 g/m*3 2.4 C 0 km/h
1209 25-01-2011 01:50:03 2.3 C 4.71 g/m*3 2.3 C 0 km/h
1210 25-01-2011 02:02:04 2.3 C 4.76 g/m*3 2.3 C 0 km/h
1211 25-01-2011 02:14:04 2.1 C 4.76 g/m*3 2.1 C 0 km/h
1212 25-01-2011 02:26:04 1.8 C 4.71 g/m*3 1.8 C 0 km/h
1213 25-01-2011 02:38:04 1.6 C 4.65 g/m*3 1.6 C 0 km/h
1214 25-01-2011 02:50:04 1.6 C 4.7 g/m*3 1.6 C 0 km/h
1215 25-01-2011 03:02:04 2 C 4.78 g/m*3 2 C 0 km/h
1216 25-01-2011 03:14:04 1.8 C 4.66 g/m*3 1.8 C 0 km/h
1217 25-01-2011 03:26:04 1.6 C 4.6 g/m*3 1.6 C 0 km/h
1218 25-01-2011 03:38:04 2.3 C 4.71 g/m*3 2.3 C 0 km/h
1219 25-01-2011 03:50:04 2.2 C 4.56 g/m*3 2.2 C 0 km/h
1220 25-01-2011 04:02:04 2.6 C 4.46 g/m*3 2.6 C 0 km/h
1221 25-01-2011 04:14:04 2.8 C 4.4 g/m*3 2.8 C 0 km/h
1222 25-01-2011 04:26:04 2.5 C 4.43 g/m*3 2.5 C 0 km/h
1223 25-01-2011 04:38:04 2.5 C 4.48 g/m*3 2.5 C 0 km/h
1224 25-01-2011 04:50:04 2.8 C 4.4 g/m*3 2.8 C 0 km/h
1225 25-01-2011 05:02:04 3 C 4.28 g/m*3 3 C 0 km/h
Sensor: Nr:Datum:Temp:Abs-Feuchte:Windchill:Wind:
Aussen-T/F 1226 25-01-2011 05:14:04 2.9 C 4.31 g/m*3 2.9 C 0 km/h
1227 25-01-2011 05:26:04 3.1 C 4.31 g/m*3 3.1 C 0 km/h
1228 25-01-2011 05:38:04 3.3 C 4.31 g/m*3 3.3 C 0 km/h
1229 25-01-2011 05:50:04 3.3 C 4.25 g/m*3 3.3 C 0 km/h
1230 25-01-2011 06:02:05 3.2 C 4.22 g/m*3 3.2 C 0 km/h
1231 25-01-2011 06:14:05 3.3 C 4.19 g/m*3 3.3 C 0 km/h
1232 25-01-2011 06:26:05 3.4 C 4.21 g/m*3 3.4 C 0 km/h
1233 25-01-2011 06:38:05 3.4 C 4.15 g/m*3 3.4 C 0 km/h
1234 25-01-2011 06:50:05 3.4 C 4.15 g/m*3 3.4 C 0 km/h
1235 25-01-2011 07:02:05 3.2 C 4.16 g/m*3 3.2 C 0 km/h
1236 25-01-2011 07:14:05 3 C 4.16 g/m*3 3 C 0 km/h
1237 25-01-2011 07:26:03 3 C 4.22 g/m*3 3 C 0 km/h
1238 25-01-2011 07:38:02 3 C 4.16 g/m*3 3 C 0 km/h
1239 25-01-2011 07:50:02 2.7 C 4.2 g/m*3 2.7 C 0 km/h
1240 25-01-2011 08:02:01 2.6 C 4.28 g/m*3 2.6 C 0 km/h
1241 25-01-2011 08:14:01 2.5 C 4.25 g/m*3 2.5 C 0 km/h
1242 25-01-2011 08:26:02 2.5 C 4.25 g/m*3 2.5 C 0 km/h
1243 25-01-2011 08:38:01 2.5 C 4.31 g/m*3 2.5 C 0 km/h
1244 25-01-2011 08:50:02 2.5 C 4.31 g/m*3 2.5 C 0 km/h
1245 25-01-2011 09:02:02 2.9 C 4.31 g/m*3 2.9 C 0 km/h
1246 25-01-2011 09:14:02 3 C 4.22 g/m*3 3 C 0 km/h
1247 25-01-2011 09:26:02 3 C 4.16 g/m*3 3 C 0 km/h
1248 25-01-2011 09:38:02 2.8 C 4.34 g/m*3 2.8 C 0 km/h
1249 25-01-2011 09:50:01 2.9 C 4.31 g/m*3 2.9 C 0 km/h
1250 25-01-2011 10:02:01 2.7 C 4.31 g/m*3 2.7 C 0 km/h
Sensor: Nr:Datum:Temp:Abs-Feuchte:Windchill:Wind:
Aussen-T/F 1251 25-01-2011 10:14:01 2.7 C 4.43 g/m*3 2.7 C 0 km/h
1252 25-01-2011 10:26:01 2.8 C 4.46 g/m*3 2.8 C 0 km/h
1253 25-01-2011 10:38:02 3.4 C 4.4 g/m*3 3.4 C 0 km/h
1254 25-01-2011 10:50:02 3 C 4.28 g/m*3 3 C 0 km/h
1255 25-01-2011 11:02:02 2.7 C 4.49 g/m*3 2.7 C 0 km/h
1256 25-01-2011 11:14:02 2.9 C 4.61 g/m*3 2.9 C 0 km/h
1257 25-01-2011 11:26:02 3 C 4.52 g/m*3 3 C 0 km/h
1258 25-01-2011 11:38:02 3.1 C 4.61 g/m*3 3.1 C 0 km/h
1259 25-01-2011 11:50:01 3.1 C 4.67 g/m*3 3.1 C 0 km/h
1260 25-01-2011 12:02:02 3.3 C 4.67 g/m*3 3.3 C 0 km/h
1261 25-01-2011 12:14:02 3.3 C 4.73 g/m*3 3.3 C 0 km/h
1262 25-01-2011 12:26:01 3.3 C 4.73 g/m*3 3.3 C 0 km/h
1263 25-01-2011 12:38:01 3.4 C 4.76 g/m*3 3.4 C 0 km/h
1264 25-01-2011 12:50:01 3.6 C 4.83 g/m*3 3.6 C 0 km/h
1265 25-01-2011 13:02:02 3.6 C 4.7 g/m*3 3.6 C 0 km/h
1266 25-01-2011 13:14:02 3.8 C 4.77 g/m*3 3.8 C 0 km/h
1267 25-01-2011 13:26:01 4 C 4.64 g/m*3 4 C 0 km/h
1268 25-01-2011 13:38:02 4.1 C 4.61 g/m*3 4.1 C 0 km/h
1269 25-01-2011 13:50:01 4.2 C 4.64 g/m*3 4.2 C 0 km/h
1270 25-01-2011 14:02:02 4.2 C 4.64 g/m*3 4.2 C 0 km/h
1271 25-01-2011 14:14:02 4.2 C 4.64 g/m*3 4.2 C 0 km/h
1272 25-01-2011 14:26:02 3.9 C 4.74 g/m*3 3.9 C 0 km/h
1273 25-01-2011 14:38:01 3.9 C 4.8 g/m*3 3.9 C 0 km/h
1274 25-01-2011 14:50:02 3.7 C 4.8 g/m*3 3.7 C 0 km/h
1275 25-01-2011 15:02:01 3 C 4.76 g/m*3 3 C 0 km/h
Sensor: Nr:Datum:Temp:Abs-Feuchte:Windchill:Wind:
Aussen-T/F 1276 25-01-2011 15:14:01 2.5 C 4.71 g/m*3 2.5 C 0 km/h
1277 25-01-2011 15:26:02 2.2 C 4.73 g/m*3 2.2 C 0 km/h
1278 25-01-2011 15:38:01 2 C 4.67 g/m*3 2 C 0 km/h
1279 25-01-2011 15:50:02 1.8 C 4.71 g/m*3 1.8 C 0 km/h
1280 25-01-2011 16:02:01 2.1 C 4.81 g/m*3 2.1 C 0 km/h
1281 25-01-2011 16:14:01 2.5 C 4.89 g/m*3 2.5 C 0 km/h
1282 25-01-2011 16:26:01 2.7 C 4.95 g/m*3 2.7 C 0 km/h
1283 25-01-2011 16:38:01 2.7 C 4.89 g/m*3 2.7 C 0 km/h
1284 25-01-2011 16:50:02 2.6 C 4.86 g/m*3 2.6 C 0 km/h
1285 25-01-2011 17:02:01 2.6 C 4.86 g/m*3 2.6 C 0 km/h
1286 25-01-2011 17:14:01 2.7 C 4.84 g/m*3 2.7 C 0 km/h
1287 25-01-2011 17:26:02 2.5 C 4.77 g/m*3 2.5 C 0 km/h
1288 25-01-2011 17:38:02 2.2 C 4.68 g/m*3 2.2 C 0 km/h
1289 25-01-2011 17:50:03 2.1 C 4.7 g/m*3 2.1 C 0 km/h
1290 25-01-2011 18:02:02 2.3 C 4.76 g/m*3 2.3 C 0 km/h
1291 25-01-2011 18:14:02 2.4 C 4.8 g/m*3 2.4 C 0 km/h
1292 25-01-2011 18:26:02 2.5 C 4.83 g/m*3 2.5 C 0 km/h
1293 25-01-2011 18:38:02 2.7 C 4.78 g/m*3 2.7 C 0 km/h
1294 25-01-2011 18:50:01 1.9 C 4.53 g/m*3 1.9 C 0 km/h
1295 25-01-2011 19:02:02 1.4 C 4.48 g/m*3 1.4 C 0 km/h
1296 25-01-2011 19:14:02 1.6 C 4.65 g/m*3 1.6 C 0 km/h
1297 25-01-2011 19:26:01 1.6 C 4.7 g/m*3 1.6 C 0 km/h
1298 25-01-2011 19:38:01 1.5 C 4.67 g/m*3 1.5 C 0 km/h
1299 25-01-2011 19:50:03 1.4 C 4.59 g/m*3 1.4 C 0 km/h
1300 25-01-2011 20:02:02 1.1 C 4.49 g/m*3 1.1 C 0 km/h
Sensor: Nr:Datum:Temp:Abs-Feuchte:Windchill:Wind:
Aussen-T/F 1301 25-01-2011 20:14:02 1 C 4.46 g/m*3 1 C 0 km/h
1302 25-01-2011 20:26:02 0.8 C 4.45 g/m*3 0.8 C 0 km/h
1303 25-01-2011 20:38:02 0.6 C 4.39 g/m*3 0.6 C 0 km/h
1304 25-01-2011 20:50:02 0.7 C 4.47 g/m*3 0.7 C 0 km/h
1305 25-01-2011 21:02:01 0.8 C 4.45 g/m*3 0.8 C 0 km/h
1306 25-01-2011 21:14:01 0.4 C 4.28 g/m*3 0.4 C 0 km/h
1307 25-01-2011 21:26:02 0.7 C 4.42 g/m*3 0.7 C 0 km/h
1308 25-01-2011 21:38:01 1.6 C 4.65 g/m*3 1.6 C 0 km/h
1309 25-01-2011 21:50:02 1.9 C 4.53 g/m*3 1.9 C 0 km/h
1310 25-01-2011 22:02:01 1.8 C 4.39 g/m*3 1.8 C 0 km/h
1311 25-01-2011 22:14:01 1.9 C 4.36 g/m*3 1.9 C 0 km/h
1312 25-01-2011 22:26:02 1.9 C 4.36 g/m*3 1.9 C 0 km/h
1313 25-01-2011 22:39:03 1.8 C 4.33 g/m*3 1.8 C 0 km/h
1314 25-01-2011 22:51:03 1.8 C 4.33 g/m*3 1.8 C 0 km/h
1315 25-01-2011 23:03:03 1.6 C 4.33 g/m*3 1.6 C 0 km/h
1316 25-01-2011 23:15:03 1.5 C 4.35 g/m*3 1.5 C 0 km/h
1317 25-01-2011 23:27:03 1 C 4.2 g/m*3 1 C 0 km/h
1318 25-01-2011 23:39:03 0.8 C 4.3 g/m*3 0.8 C 0 km/h
1319 25-01-2011 23:51:03 0.8 C 4.4 g/m*3 0.8 C 0 km/h
1320 26-01-2011 00:03:03 1 C 4.41 g/m*3 1 C 0 km/h
1321 26-01-2011 00:15:03 1.1 C 4.49 g/m*3 1.1 C 0 km/h
1322 26-01-2011 00:27:03 1.1 C 4.44 g/m*3 1.1 C 0 km/h
1323 26-01-2011 00:39:03 0.4 C 4.23 g/m*3 0.4 C 0 km/h
1324 26-01-2011 00:51:03 -0.4 C 4.01 g/m*3 -0.4 C 0 km/h
1325 26-01-2011 01:03:03 -0.5 C 4.03 g/m*3 -0.5 C 0 km/h
Sensor: Nr:Datum:Temp:Abs-Feuchte:Windchill:Wind:
Aussen-T/F 1326 26-01-2011 01:15:03 -0.4 C 4.1 g/m*3 -0.4 C 0 km/h
1327 26-01-2011 01:27:03 -0.5 C 4.12 g/m*3 -0.5 C 0 km/h
1328 26-01-2011 01:39:03 -0.6 C 4.09 g/m*3 -0.6 C 0 km/h
1329 26-01-2011 01:51:03 -0.9 C 4.01 g/m*3 -0.9 C 0 km/h
1330 26-01-2011 02:03:04 -0.7 C 4.11 g/m*3 -0.7 C 0 km/h
1331 26-01-2011 02:15:04 -0.5 C 4.17 g/m*3 -0.5 C 0 km/h
1332 26-01-2011 02:27:04 -0.5 C 4.17 g/m*3 -0.5 C 0 km/h
1333 26-01-2011 02:39:04 -0.7 C 4.11 g/m*3 -0.7 C 0 km/h
1334 26-01-2011 02:51:04 -0.7 C 4.11 g/m*3 -0.7 C 0 km/h
1335 26-01-2011 03:03:04 -0.5 C 4.21 g/m*3 -0.5 C 0 km/h
1336 26-01-2011 03:15:04 -0.5 C 4.21 g/m*3 -0.5 C 0 km/h
1337 26-01-2011 03:27:04 -0.5 C 4.21 g/m*3 -0.5 C 0 km/h
1338 26-01-2011 03:39:04 -0.5 C 4.21 g/m*3 -0.5 C 0 km/h
1339 26-01-2011 03:51:04 -0.6 C 4.18 g/m*3 -0.6 C 0 km/h
1340 26-01-2011 04:03:04 -0.6 C 4.18 g/m*3 -0.6 C 0 km/h
1341 26-01-2011 04:15:04 -0.5 C 4.21 g/m*3 -0.5 C 0 km/h
1342 26-01-2011 04:27:04 -0.4 C 4.24 g/m*3 -0.4 C 0 km/h
1343 26-01-2011 04:39:04 -0.5 C 4.26 g/m*3 -0.5 C 0 km/h
1344 26-01-2011 04:51:04 -0.3 C 4.32 g/m*3 -0.3 C 0 km/h
1345 26-01-2011 05:03:04 -0.3 C 4.32 g/m*3 -0.3 C 0 km/h
1346 26-01-2011 05:15:04 -0.2 C 4.35 g/m*3 -0.2 C 0 km/h
1347 26-01-2011 05:27:04 -0.2 C 4.35 g/m*3 -0.2 C 0 km/h
1348 26-01-2011 05:39:04 -0.2 C 4.35 g/m*3 -0.2 C 0 km/h
1349 26-01-2011 05:51:04 -0.1 C 4.38 g/m*3 -0.1 C 0 km/h
1350 26-01-2011 06:03:05 -0.1 C 4.38 g/m*3 -0.1 C 0 km/h
Sensor: Nr:Datum:Temp:Abs-Feuchte:Windchill:Wind:
Aussen-T/F 1351 26-01-2011 06:15:05 -0.1 C 4.38 g/m*3 -0.1 C 0 km/h
1352 26-01-2011 06:27:05 -0.2 C 4.35 g/m*3 -0.2 C 0 km/h
1353 26-01-2011 06:39:05 -0.2 C 4.35 g/m*3 -0.2 C 0 km/h
1354 26-01-2011 06:51:05 -0.2 C 4.35 g/m*3 -0.2 C 0 km/h
1355 26-01-2011 07:03:05 -0.2 C 4.35 g/m*3 -0.2 C 0 km/h
1356 26-01-2011 07:15:02 -0.1 C 4.38 g/m*3 -0.1 C 0 km/h
1357 26-01-2011 07:27:02 -0.2 C 4.35 g/m*3 -0.2 C 0 km/h
1358 26-01-2011 07:39:03 -0.3 C 4.32 g/m*3 -0.3 C 0 km/h
1359 26-01-2011 07:51:02 -0.3 C 4.32 g/m*3 -0.3 C 0 km/h
1360 26-01-2011 08:03:02 -0.2 C 4.35 g/m*3 -0.2 C 0 km/h
1361 26-01-2011 08:15:02 -0.1 C 4.38 g/m*3 -0.1 C 0 km/h
1362 26-01-2011 08:27:02 0 C 4.41 g/m*3 0 C 0 km/h
1363 26-01-2011 08:39:02 0.2 C 4.47 g/m*3 0.2 C 0 km/h
1364 26-01-2011 08:51:01 0.3 C 4.55 g/m*3 0.3 C 0 km/h
1365 26-01-2011 09:03:02 0.4 C 4.58 g/m*3 0.4 C 0 km/h
1366 26-01-2011 09:15:01 0.5 C 4.61 g/m*3 0.5 C 0 km/h
1367 26-01-2011 09:27:01 0.6 C 4.65 g/m*3 0.6 C 0 km/h
1368 26-01-2011 09:39:02 0.8 C 4.71 g/m*3 0.8 C 0 km/h
1369 26-01-2011 09:51:02 1 C 4.72 g/m*3 1 C 0 km/h
1370 26-01-2011 10:03:02 1.1 C 4.7 g/m*3 1.1 C 0 km/h
1371 26-01-2011 10:15:02 1.5 C 4.83 g/m*3 1.5 C 0 km/h
1372 26-01-2011 10:27:02 1.6 C 4.81 g/m*3 1.6 C 0 km/h
1373 26-01-2011 10:39:02 1.7 C 4.85 g/m*3 1.7 C 0 km/h
1374 26-01-2011 10:51:02 2.1 C 4.87 g/m*3 2.1 C 0 km/h
1375 26-01-2011 11:03:03 2.1 C 4.76 g/m*3 2.1 C 0 km/h
Sensor: Nr:Datum:Temp:Abs-Feuchte:Windchill:Wind:
Aussen-T/F 1376 26-01-2011 11:15:02 2.3 C 4.71 g/m*3 2.3 C 0 km/h
1377 26-01-2011 11:27:02 2.6 C 4.69 g/m*3 2.6 C 0 km/h
1378 26-01-2011 11:39:02 2.6 C 4.34 g/m*3 2.6 C 0 km/h
1379 26-01-2011 11:51:02 2.8 C 4.22 g/m*3 2.8 C 0 km/h
1380 26-01-2011 12:03:02 3.2 C 4.16 g/m*3 3.2 C 0 km/h
1381 26-01-2011 12:15:02 3.4 C 4.09 g/m*3 3.4 C 0 km/h
1382 26-01-2011 12:27:02 3.6 C 4.02 g/m*3 3.6 C 0 km/h
1383 26-01-2011 12:39:02 3.7 C 4.11 g/m*3 3.7 C 0 km/h
1384 26-01-2011 12:51:01 3.9 C 4.11 g/m*3 3.9 C 0 km/h
1385 26-01-2011 13:03:02 3.7 C 4.05 g/m*3 3.7 C 0 km/h
1386 26-01-2011 13:15:02 3.3 C 3.94 g/m*3 3.3 C 0 km/h
1387 26-01-2011 13:27:02 3.3 C 4 g/m*3 3.3 C 0 km/h
1388 26-01-2011 13:39:02 3.1 C 4.01 g/m*3 3.1 C 0 km/h
1389 26-01-2011 13:51:01 2.8 C 3.99 g/m*3 2.8 C 0 km/h
1390 26-01-2011 14:03:02 3.1 C 4.01 g/m*3 3.1 C 0 km/h
1391 26-01-2011 14:15:01 3.4 C 3.91 g/m*3 3.4 C 0 km/h
1392 26-01-2011 14:27:01 3.5 C 3.87 g/m*3 3.5 C 0 km/h
1393 26-01-2011 14:39:01 3.5 C 3.94 g/m*3 3.5 C 0 km/h
1394 26-01-2011 14:51:01 3.2 C 3.8 g/m*3 3.2 C 0 km/h
1395 26-01-2011 15:03:02 3.2 C 3.86 g/m*3 3.2 C 0 km/h
1396 26-01-2011 15:15:01 2.9 C 3.78 g/m*3 2.9 C 0 km/h
1397 26-01-2011 15:27:01 3.4 C 3.85 g/m*3 3.4 C 0 km/h
1398 26-01-2011 15:39:01 3.7 C 3.93 g/m*3 3.7 C 0 km/h
1399 26-01-2011 15:51:01 3.4 C 3.79 g/m*3 3.4 C 0 km/h
1400 26-01-2011 16:03:02 3.1 C 3.71 g/m*3 3.1 C 0 km/h
Sensor: Nr:Datum:Temp:Abs-Feuchte:Windchill:Wind:
Aussen-T/F 1401 26-01-2011 16:15:01 2.7 C 3.96 g/m*3 2.7 C 0 km/h
1402 26-01-2011 16:27:01 2.2 C 4.11 g/m*3 2.2 C 0 km/h
1403 26-01-2011 16:39:01 1.7 C 4.14 g/m*3 1.7 C 0 km/h
1404 26-01-2011 16:51:01 1.5 C 4.24 g/m*3 1.5 C 0 km/h
1405 26-01-2011 17:03:02 1.2 C 4.26 g/m*3 1.2 C 0 km/h
1406 26-01-2011 17:15:02 0.6 C 4.19 g/m*3 0.6 C 0 km/h
1407 26-01-2011 17:27:02 0.6 C 4.29 g/m*3 0.6 C 0 km/h
1408 26-01-2011 17:39:02 0.7 C 4.32 g/m*3 0.7 C 0 km/h
1409 26-01-2011 17:51:03 0.7 C 4.32 g/m*3 0.7 C 0 km/h
1410 26-01-2011 18:03:02 0.5 C 4.26 g/m*3 0.5 C 0 km/h
1411 26-01-2011 18:15:02 0.6 C 4.29 g/m*3 0.6 C 0 km/h
1412 26-01-2011 18:27:02 0.7 C 4.32 g/m*3 0.7 C 0 km/h
1413 26-01-2011 18:39:02 0.7 C 4.32 g/m*3 0.7 C 0 km/h
1414 26-01-2011 18:51:02 0.7 C 4.27 g/m*3 0.7 C 0 km/h
1415 26-01-2011 19:03:02 0.5 C 4.21 g/m*3 0.5 C 0 km/h
1416 26-01-2011 19:15:03 0.5 C 4.21 g/m*3 0.5 C 0 km/h
1417 26-01-2011 19:27:03 0.4 C 4.23 g/m*3 0.4 C 0 km/h
1418 26-01-2011 19:39:02 0.3 C 4.2 g/m*3 0.3 C 0 km/h
1419 26-01-2011 19:51:02 0.5 C 4.31 g/m*3 0.5 C 0 km/h
1420 26-01-2011 20:03:02 0.5 C 4.31 g/m*3 0.5 C 0 km/h
1421 26-01-2011 20:15:03 0.4 C 4.28 g/m*3 0.4 C 0 km/h
1422 26-01-2011 20:27:03 0.6 C 4.34 g/m*3 0.6 C 0 km/h
1423 26-01-2011 20:39:02 0.5 C 4.31 g/m*3 0.5 C 0 km/h
1424 26-01-2011 20:51:02 0.5 C 4.31 g/m*3 0.5 C 0 km/h
1425 26-01-2011 21:03:02 0.6 C 4.34 g/m*3 0.6 C 0 km/h
Sensor: Nr:Datum:Temp:Abs-Feuchte:Windchill:Wind:
Aussen-T/F 1426 26-01-2011 21:15:02 0.6 C 4.34 g/m*3 0.6 C 0 km/h
1427 26-01-2011 21:27:03 0.6 C 4.29 g/m*3 0.6 C 0 km/h
1428 26-01-2011 21:39:02 0.5 C 4.21 g/m*3 0.5 C 0 km/h
1429 26-01-2011 21:51:02 0.3 C 4.11 g/m*3 0.3 C 0 km/h
1430 26-01-2011 22:04:02 0.2 C 4.13 g/m*3 0.2 C 0 km/h
1431 26-01-2011 22:16:02 0.1 C 4.1 g/m*3 0.1 C 0 km/h
1432 26-01-2011 22:28:02 -0.4 C 3.91 g/m*3 -0.4 C 0 km/h
1433 26-01-2011 22:40:02 -0.3 C 3.94 g/m*3 -0.3 C 0 km/h
1434 26-01-2011 22:52:02 -0.4 C 3.96 g/m*3 -0.4 C 0 km/h
1435 26-01-2011 23:04:02 -0.6 C 3.9 g/m*3 -0.6 C 0 km/h
1436 26-01-2011 23:16:02 -0.7 C 3.88 g/m*3 -0.7 C 0 km/h
1437 26-01-2011 23:28:03 -1 C 3.8 g/m*3 -1 C 0 km/h
1438 26-01-2011 23:40:03 -1.1 C 3.82 g/m*3 -1.1 C 0 km/h
1439 26-01-2011 23:52:03 -1 C 3.89 g/m*3 -1 C 0 km/h
1440 27-01-2011 00:04:03 -0.8 C 3.94 g/m*3 -0.8 C 0 km/h
1441 27-01-2011 00:16:03 -1.1 C 3.86 g/m*3 -1.1 C 0 km/h
1442 27-01-2011 00:28:03 -1.1 C 3.86 g/m*3 -1.1 C 0 km/h
1443 27-01-2011 00:40:03 -1.7 C 3.66 g/m*3 -1.7 C 0 km/h
1444 27-01-2011 00:52:03 -1.5 C 3.75 g/m*3 -1.5 C 0 km/h
1445 27-01-2011 01:04:03 -1.5 C 3.75 g/m*3 -1.5 C 0 km/h
1446 27-01-2011 01:16:03 -1.7 C 3.7 g/m*3 -1.7 C 0 km/h
1447 27-01-2011 01:28:03 -1.7 C 3.7 g/m*3 -1.7 C 0 km/h
1448 27-01-2011 01:40:03 -1.9 C 3.65 g/m*3 -1.9 C 0 km/h
1449 27-01-2011 01:52:03 -2 C 3.63 g/m*3 -2 C 0 km/h
1450 27-01-2011 02:04:03 -2.3 C 3.55 g/m*3 -2.3 C 0 km/h
Sensor: Nr:Datum:Temp:Abs-Feuchte:Windchill:Wind:
Aussen-T/F 1451 27-01-2011 02:16:03 -2.3 C 3.55 g/m*3 -2.3 C 0 km/h
1452 27-01-2011 02:28:03 -2.5 C 3.5 g/m*3 -2.5 C 0 km/h
1453 27-01-2011 02:40:03 -2.6 C 3.52 g/m*3 -2.6 C 0 km/h
1454 27-01-2011 02:52:03 -2.9 C 3.4 g/m*3 -2.9 C 0 km/h
1455 27-01-2011 03:04:03 -3 C 3.38 g/m*3 -3 C 0 km/h
1456 27-01-2011 03:16:03 -3.4 C 3.28 g/m*3 -3.4 C 0 km/h
1457 27-01-2011 03:28:03 -3.2 C 3.37 g/m*3 -3.2 C 0 km/h
1458 27-01-2011 03:40:04 -3.5 C 3.3 g/m*3 -3.5 C 0 km/h
1459 27-01-2011 03:52:04 -3.7 C 3.25 g/m*3 -3.7 C 0 km/h
1460 27-01-2011 04:04:04 -2.7 C 3.53 g/m*3 -2.7 C 0 km/h
1461 27-01-2011 04:16:04 -2.4 C 3.61 g/m*3 -2.4 C 0 km/h
1462 27-01-2011 04:28:04 -2.2 C 3.7 g/m*3 -2.2 C 0 km/h
1463 27-01-2011 04:40:04 -1.9 C 3.78 g/m*3 -1.9 C 0 km/h
1464 27-01-2011 04:52:04 -1.8 C 3.8 g/m*3 -1.8 C 0 km/h
1465 27-01-2011 05:04:04 -1.6 C 3.86 g/m*3 -1.6 C 0 km/h
1466 27-01-2011 05:16:04 -1.6 C 3.9 g/m*3 -1.6 C 0 km/h
1467 27-01-2011 05:28:04 -1.5 C 3.93 g/m*3 -1.5 C 0 km/h
1468 27-01-2011 05:40:04 -1.5 C 3.93 g/m*3 -1.5 C 0 km/h
1469 27-01-2011 05:52:04 -1.6 C 3.9 g/m*3 -1.6 C 0 km/h
1470 27-01-2011 06:04:04 -1.6 C 3.9 g/m*3 -1.6 C 0 km/h
1471 27-01-2011 06:16:04 -1.2 C 4.01 g/m*3 -1.2 C 0 km/h
1472 27-01-2011 06:28:04 -1.3 C 3.98 g/m*3 -1.3 C 0 km/h
1473 27-01-2011 06:40:04 -1.4 C 3.96 g/m*3 -1.4 C 0 km/h
1474 27-01-2011 06:52:04 -1.4 C 3.96 g/m*3 -1.4 C 0 km/h
1475 27-01-2011 07:04:01 -1.4 C 3.96 g/m*3 -1.4 C 0 km/h
Sensor: Nr:Datum:Temp:Abs-Feuchte:Windchill:Wind:
Aussen-T/F 1476 27-01-2011 07:16:02 -1.3 C 3.98 g/m*3 -1.3 C 0 km/h
1477 27-01-2011 07:28:03 -1.3 C 3.98 g/m*3 -1.3 C 0 km/h
1478 27-01-2011 07:40:01 -1.3 C 3.98 g/m*3 -1.3 C 0 km/h
1479 27-01-2011 07:52:02 -1.3 C 3.98 g/m*3 -1.3 C 0 km/h
1480 27-01-2011 08:04:01 -1.3 C 3.98 g/m*3 -1.3 C 0 km/h
1481 27-01-2011 08:16:01 -1.3 C 3.98 g/m*3 -1.3 C 0 km/h
1482 27-01-2011 08:28:01 -1.3 C 3.98 g/m*3 -1.3 C 0 km/h
1483 27-01-2011 08:40:02 -1.1 C 4.09 g/m*3 -1.1 C 0 km/h
1484 27-01-2011 08:52:02 -0.9 C 4.14 g/m*3 -0.9 C 0 km/h
1485 27-01-2011 09:04:02 -0.7 C 4.2 g/m*3 -0.7 C 0 km/h
1486 27-01-2011 09:16:02 -0.4 C 4.29 g/m*3 -0.4 C 0 km/h
1487 27-01-2011 09:28:02 -0.2 C 4.35 g/m*3 -0.2 C 0 km/h
1488 27-01-2011 09:40:02 0 C 4.41 g/m*3 0 C 0 km/h
1489 27-01-2011 09:52:01 0.1 C 4.39 g/m*3 0.1 C 0 km/h
1490 27-01-2011 10:04:02 0.3 C 4.45 g/m*3 0.3 C 0 km/h
1491 27-01-2011 10:16:01 0.6 C 4.44 g/m*3 0.6 C 0 km/h
1492 27-01-2011 10:28:02 1 C 4.36 g/m*3 1 C 0 km/h
1493 27-01-2011 10:40:01 1.1 C 4.18 g/m*3 1.1 C 0 km/h
1494 27-01-2011 10:52:02 1.3 C 3.97 g/m*3 1.3 C 0 km/h
1495 27-01-2011 11:04:02 1.5 C 3.81 g/m*3 1.5 C 0 km/h
1496 27-01-2011 11:16:02 1.7 C 3.7 g/m*3 1.7 C 0 km/h
1497 27-01-2011 11:28:02 1.9 C 3.59 g/m*3 1.9 C 0 km/h
1498 27-01-2011 11:40:02 2.1 C 3.58 g/m*3 2.1 C 0 km/h
1499 27-01-2011 11:52:02 2.1 C 3.47 g/m*3 2.1 C 0 km/h
1500 27-01-2011 12:04:02 2.2 C 3.44 g/m*3 2.2 C 0 km/h
Sensor: Nr:Datum:Temp:Abs-Feuchte:Windchill:Wind:
Aussen-T/F 1501 27-01-2011 12:16:01 2.5 C 3.45 g/m*3 2.5 C 0 km/h
1502 27-01-2011 12:28:01 2.3 C 3.23 g/m*3 2.3 C 0 km/h
1503 27-01-2011 12:40:02 2.6 C 3.3 g/m*3 2.6 C 0 km/h
1504 27-01-2011 12:52:02 2.6 C 3.24 g/m*3 2.6 C 0 km/h
1505 27-01-2011 13:04:02 2.6 C 3.24 g/m*3 2.6 C 0 km/h
1506 27-01-2011 13:16:02 2.4 C 3.08 g/m*3 2.4 C 0 km/h
1507 27-01-2011 13:28:02 2.8 C 3.11 g/m*3 2.8 C 0 km/h
1508 27-01-2011 13:40:02 2.9 C 3.07 g/m*3 2.9 C 0 km/h
1509 27-01-2011 13:52:02 2.5 C 2.99 g/m*3 2.5 C 0 km/h
1510 27-01-2011 14:04:02 2.1 C 2.97 g/m*3 2.1 C 0 km/h
1511 27-01-2011 14:16:02 2.2 C 2.99 g/m*3 2.2 C 0 km/h
1512 27-01-2011 14:28:02 2.4 C 2.85 g/m*3 2.4 C 0 km/h
1513 27-01-2011 14:40:02 2.7 C 2.97 g/m*3 2.7 C 0 km/h
1514 27-01-2011 14:52:01 2.6 C 2.95 g/m*3 2.6 C 0 km/h
1515 27-01-2011 15:04:01 2 C 2.78 g/m*3 2 C 0 km/h
1516 27-01-2011 15:16:02 2 C 2.83 g/m*3 2 C 0 km/h
1517 27-01-2011 15:28:02 2 C 2.83 g/m*3 2 C 0 km/h
1518 27-01-2011 15:40:01 1.8 C 2.85 g/m*3 1.8 C 0 km/h
1519 27-01-2011 15:52:03 1.6 C 2.76 g/m*3 1.6 C 0 km/h
1520 27-01-2011 16:04:02 1.5 C 2.74 g/m*3 1.5 C 0 km/h
1521 27-01-2011 16:16:02 1.3 C 2.7 g/m*3 1.3 C 0 km/h
1522 27-01-2011 16:28:02 1.4 C 2.83 g/m*3 1.4 C 0 km/h
1523 27-01-2011 16:40:02 1 C 2.7 g/m*3 1 C 0 km/h
1524 27-01-2011 16:52:02 0.7 C 2.75 g/m*3 0.7 C 0 km/h
1525 27-01-2011 17:04:02 0.5 C 2.76 g/m*3 0.5 C 0 km/h
Sensor: Nr:Datum:Temp:Abs-Feuchte:Windchill:Wind:
Aussen-T/F 1526 27-01-2011 17:16:02 0.4 C 2.69 g/m*3 0.4 C 0 km/h
1527 27-01-2011 17:28:03 0.2 C 2.75 g/m*3 0.2 C 0 km/h
1528 27-01-2011 17:40:02 0.1 C 2.83 g/m*3 0.1 C 0 km/h
1529 27-01-2011 17:52:03 0.1 C 2.73 g/m*3 0.1 C 0 km/h
1530 27-01-2011 18:04:03 0 C 2.76 g/m*3 0 C 0 km/h
1531 27-01-2011 18:16:03 0.2 C 2.75 g/m*3 0.2 C 0 km/h
1532 27-01-2011 18:28:04 0 C 2.76 g/m*3 0 C 0 km/h
1533 27-01-2011 18:40:02 -0.1 C 2.79 g/m*3 -0.1 C 0 km/h
1534 27-01-2011 18:52:03 -0.1 C 2.79 g/m*3 -0.1 C 0 km/h
1535 27-01-2011 19:04:02 0 C 2.76 g/m*3 0 C 0 km/h
1536 27-01-2011 19:16:02 0 C 2.86 g/m*3 0 C 0 km/h
1537 27-01-2011 19:28:02 -0.2 C 2.82 g/m*3 -0.2 C 0 km/h
1538 27-01-2011 19:40:02 -0.2 C 2.82 g/m*3 -0.2 C 0 km/h
1539 27-01-2011 19:52:02 -0.4 C 2.83 g/m*3 -0.4 C 0 km/h
1540 27-01-2011 20:04:02 -0.3 C 2.85 g/m*3 -0.3 C 0 km/h
1541 27-01-2011 20:16:02 -0.3 C 2.85 g/m*3 -0.3 C 0 km/h
1542 27-01-2011 20:28:03 -0.3 C 2.85 g/m*3 -0.3 C 0 km/h
1543 27-01-2011 20:40:02 -0.4 C 2.87 g/m*3 -0.4 C 0 km/h
1544 27-01-2011 20:52:02 -0.4 C 2.87 g/m*3 -0.4 C 0 km/h
1545 27-01-2011 21:04:01 -0.7 C 2.91 g/m*3 -0.7 C 0 km/h
1546 27-01-2011 21:16:02 -0.6 C 2.88 g/m*3 -0.6 C 0 km/h
1547 27-01-2011 21:28:02 -0.9 C 2.87 g/m*3 -0.9 C 0 km/h
1548 27-01-2011 21:40:01 -1 C 2.76 g/m*3 -1 C 0 km/h
1549 27-01-2011 21:53:03 -1.4 C 2.77 g/m*3 -1.4 C 0 km/h
1550 27-01-2011 22:05:03 -1.6 C 2.77 g/m*3 -1.6 C 0 km/h
Sensor: Nr:Datum:Temp:Abs-Feuchte:Windchill:Wind:
Aussen-T/F 1551 27-01-2011 22:17:03 -1.7 C 2.76 g/m*3 -1.7 C 0 km/h
1552 27-01-2011 22:29:03 -1.1 C 2.92 g/m*3 -1.1 C 0 km/h
1553 27-01-2011 22:41:03 -0.9 C 2.91 g/m*3 -0.9 C 0 km/h
1554 27-01-2011 22:53:03 -0.7 C 2.86 g/m*3 -0.7 C 0 km/h
1555 27-01-2011 23:05:03 -0.7 C 2.82 g/m*3 -0.7 C 0 km/h
1556 27-01-2011 23:17:03 -0.9 C 2.78 g/m*3 -0.9 C 0 km/h
1557 27-01-2011 23:29:03 -1.1 C 2.78 g/m*3 -1.1 C 0 km/h
1558 27-01-2011 23:41:03 -1.2 C 2.76 g/m*3 -1.2 C 0 km/h
1559 27-01-2011 23:53:04 -1.1 C 2.78 g/m*3 -1.1 C 0 km/h
1560 28-01-2011 00:05:04 -1.3 C 2.74 g/m*3 -1.3 C 0 km/h
1561 28-01-2011 00:17:04 -1.4 C 2.73 g/m*3 -1.4 C 0 km/h
1562 28-01-2011 00:29:04 -1.5 C 2.75 g/m*3 -1.5 C 0 km/h
1563 28-01-2011 00:41:04 -1.4 C 2.81 g/m*3 -1.4 C 0 km/h
1564 28-01-2011 00:53:04 -1.1 C 2.78 g/m*3 -1.1 C 0 km/h
1565 28-01-2011 01:05:04 -1 C 2.71 g/m*3 -1 C 0 km/h
1566 28-01-2011 01:17:04 -1.2 C 2.67 g/m*3 -1.2 C 0 km/h
1567 28-01-2011 01:29:04 -1.4 C 2.64 g/m*3 -1.4 C 0 km/h
1568 28-01-2011 01:41:04 -1.3 C 2.66 g/m*3 -1.3 C 0 km/h
1569 28-01-2011 01:53:04 -1.3 C 2.66 g/m*3 -1.3 C 0 km/h
1570 28-01-2011 02:05:04 -1.3 C 2.66 g/m*3 -1.3 C 0 km/h
1571 28-01-2011 02:17:04 -1.3 C 2.66 g/m*3 -1.3 C 0 km/h
1572 28-01-2011 02:29:04 -1.8 C 2.65 g/m*3 -1.8 C 0 km/h
1573 28-01-2011 02:41:04 -1.4 C 2.73 g/m*3 -1.4 C 0 km/h
1574 28-01-2011 02:53:04 -1.3 C 2.74 g/m*3 -1.3 C 0 km/h
1575 28-01-2011 03:05:04 -1.3 C 2.74 g/m*3 -1.3 C 0 km/h
Sensor: Nr:Datum:Temp:Abs-Feuchte:Windchill:Wind:
Aussen-T/F 1576 28-01-2011 03:17:04 -1.2 C 2.76 g/m*3 -1.2 C 0 km/h
1577 28-01-2011 03:29:04 -1.2 C 2.81 g/m*3 -1.2 C 0 km/h
1578 28-01-2011 03:41:04 -1.1 C 2.78 g/m*3 -1.1 C 0 km/h
1579 28-01-2011 03:53:05 -1.1 C 2.83 g/m*3 -1.1 C 0 km/h
1580 28-01-2011 04:05:05 -1 C 2.85 g/m*3 -1 C 0 km/h
1581 28-01-2011 04:17:05 -1.1 C 2.83 g/m*3 -1.1 C 0 km/h
1582 28-01-2011 04:29:05 -1 C 2.8 g/m*3 -1 C 0 km/h
1583 28-01-2011 04:41:05 -1.1 C 2.78 g/m*3 -1.1 C 0 km/h
1584 28-01-2011 04:53:05 -1 C 2.85 g/m*3 -1 C 0 km/h
1585 28-01-2011 05:05:05 -1 C 2.89 g/m*3 -1 C 0 km/h
1586 28-01-2011 05:17:05 -1 C 2.85 g/m*3 -1 C 0 km/h
1587 28-01-2011 05:29:05 -0.9 C 2.82 g/m*3 -0.9 C 0 km/h
1588 28-01-2011 05:41:05 -1 C 2.8 g/m*3 -1 C 0 km/h
1589 28-01-2011 05:53:05 -1 C 2.8 g/m*3 -1 C 0 km/h
1590 28-01-2011 06:05:05 -0.9 C 2.78 g/m*3 -0.9 C 0 km/h
1591 28-01-2011 06:17:05 -1 C 2.76 g/m*3 -1 C 0 km/h
1592 28-01-2011 06:29:05 -1 C 2.76 g/m*3 -1 C 0 km/h
1593 28-01-2011 06:41:05 -1 C 2.76 g/m*3 -1 C 0 km/h
1594 28-01-2011 06:53:05 -1 C 2.8 g/m*3 -1 C 0 km/h
1595 28-01-2011 07:05:02 -1 C 2.8 g/m*3 -1 C 0 km/h
1596 28-01-2011 07:17:03 -1 C 2.8 g/m*3 -1 C 0 km/h
1597 28-01-2011 07:29:03 -1.1 C 2.78 g/m*3 -1.1 C 0 km/h
1598 28-01-2011 07:41:02 -1.1 C 2.78 g/m*3 -1.1 C 0 km/h
1599 28-01-2011 07:53:02 -1.1 C 2.78 g/m*3 -1.1 C 0 km/h
1600 28-01-2011 08:05:01 -1.6 C 2.69 g/m*3 -1.6 C 0 km/h
Sensor: Nr:Datum:Temp:Abs-Feuchte:Windchill:Wind:
Aussen-T/F 1601 28-01-2011 08:17:02 -2 C 2.7 g/m*3 -2 C 0 km/h
1602 28-01-2011 08:29:03 -2.4 C 2.7 g/m*3 -2.4 C 0 km/h
1603 28-01-2011 08:41:01 -2 C 2.78 g/m*3 -2 C 0 km/h
1604 28-01-2011 08:53:02 -2.5 C 2.73 g/m*3 -2.5 C 0 km/h
1605 28-01-2011 09:05:02 -1.9 C 2.89 g/m*3 -1.9 C 0 km/h
1606 28-01-2011 09:17:02 -1.5 C 2.88 g/m*3 -1.5 C 0 km/h
1607 28-01-2011 09:29:02 -1.1 C 2.83 g/m*3 -1.1 C 0 km/h
1608 28-01-2011 09:41:03 -1.1 C 2.74 g/m*3 -1.1 C 0 km/h
1609 28-01-2011 09:53:02 -1.4 C 2.64 g/m*3 -1.4 C 0 km/h
1610 28-01-2011 10:05:02 -0.9 C 2.73 g/m*3 -0.9 C 0 km/h
1611 28-01-2011 10:17:02 -0.6 C 2.7 g/m*3 -0.6 C 0 km/h
1612 28-01-2011 10:29:02 -0.6 C 2.65 g/m*3 -0.6 C 0 km/h
1613 28-01-2011 10:41:02 -0.6 C 2.65 g/m*3 -0.6 C 0 km/h
1614 28-01-2011 10:53:02 -0.3 C 2.71 g/m*3 -0.3 C 0 km/h
1615 28-01-2011 11:05:03 0.1 C 2.73 g/m*3 0.1 C 0 km/h
1616 28-01-2011 11:17:02 -0.1 C 2.65 g/m*3 -0.1 C 0 km/h
1617 28-01-2011 11:29:02 -0.2 C 2.68 g/m*3 -0.2 C 0 km/h
1618 28-01-2011 11:41:02 0.3 C 2.72 g/m*3 0.3 C 0 km/h
1619 28-01-2011 11:53:02 0.6 C 2.73 g/m*3 0.6 C 0 km/h
1620 28-01-2011 12:05:02 0.6 C 2.68 g/m*3 0.6 C 0 km/h
1621 28-01-2011 12:17:01 0.7 C 2.69 g/m*3 0.7 C 0 km/h
1622 28-01-2011 12:29:01 0.4 C 2.69 g/m*3 0.4 C 0 km/h
1623 28-01-2011 12:41:02 1 C 2.7 g/m*3 1 C 0 km/h
1624 28-01-2011 12:53:02 0.9 C 2.73 g/m*3 0.9 C 0 km/h
1625 28-01-2011 13:05:02 0.9 C 2.73 g/m*3 0.9 C 0 km/h
Sensor: Nr:Datum:Temp:Abs-Feuchte:Windchill:Wind:
Aussen-T/F 1626 28-01-2011 13:17:01 1 C 2.7 g/m*3 1 C 0 km/h
1627 28-01-2011 13:29:01 1 C 2.7 g/m*3 1 C 0 km/h
1628 28-01-2011 13:41:02 0.9 C 2.73 g/m*3 0.9 C 0 km/h
1629 28-01-2011 13:53:01 1 C 2.75 g/m*3 1 C 0 km/h
1630 28-01-2011 14:05:02 1 C 2.7 g/m*3 1 C 0 km/h
1631 28-01-2011 14:17:02 1.3 C 2.75 g/m*3 1.3 C 0 km/h
1632 28-01-2011 14:29:02 1.3 C 2.75 g/m*3 1.3 C 0 km/h
1633 28-01-2011 14:41:02 1.2 C 2.74 g/m*3 1.2 C 0 km/h
1634 28-01-2011 14:53:02 1.3 C 2.81 g/m*3 1.3 C 0 km/h
1635 28-01-2011 15:05:01 1.3 C 2.86 g/m*3 1.3 C 0 km/h
1636 28-01-2011 15:17:02 1.2 C 2.74 g/m*3 1.2 C 0 km/h
1637 28-01-2011 15:29:02 1.3 C 2.81 g/m*3 1.3 C 0 km/h
1638 28-01-2011 15:41:01 1.2 C 2.79 g/m*3 1.2 C 0 km/h
1639 28-01-2011 15:53:02 1.3 C 2.81 g/m*3 1.3 C 0 km/h
1640 28-01-2011 16:05:01 0.8 C 2.87 g/m*3 0.8 C 0 km/h
1641 28-01-2011 16:17:01 0.7 C 2.85 g/m*3 0.7 C 0 km/h
1642 28-01-2011 16:29:01 0.6 C 2.88 g/m*3 0.6 C 0 km/h
1643 28-01-2011 16:41:02 0.3 C 2.87 g/m*3 0.3 C 0 km/h
1644 28-01-2011 16:53:02 -0.2 C 2.82 g/m*3 -0.2 C 0 km/h
1645 28-01-2011 17:05:02 -0.5 C 2.9 g/m*3 -0.5 C 0 km/h
1646 28-01-2011 17:17:02 -0.9 C 2.91 g/m*3 -0.9 C 0 km/h
1647 28-01-2011 17:29:02 -1.6 C 2.9 g/m*3 -1.6 C 0 km/h
1648 28-01-2011 17:41:03 -1.8 C 2.99 g/m*3 -1.8 C 0 km/h
1649 28-01-2011 17:53:02 -2.1 C 3.06 g/m*3 -2.1 C 0 km/h
1650 28-01-2011 18:05:02 -2.4 C 3.03 g/m*3 -2.4 C 0 km/h
Sensor: Nr:Datum:Temp:Abs-Feuchte:Windchill:Wind:
Aussen-T/F 1651 28-01-2011 18:17:02 -2.5 C 3.05 g/m*3 -2.5 C 0 km/h
1652 28-01-2011 18:29:02 -2.2 C 3.16 g/m*3 -2.2 C 0 km/h
1653 28-01-2011 18:41:02 -2.5 C 3.09 g/m*3 -2.5 C 0 km/h
1654 28-01-2011 18:53:02 -2.6 C 3.11 g/m*3 -2.6 C 0 km/h
1655 28-01-2011 19:05:02 -2.5 C 3.13 g/m*3 -2.5 C 0 km/h
1656 28-01-2011 19:17:02 -2.4 C 3.16 g/m*3 -2.4 C 0 km/h
1657 28-01-2011 19:29:02 -2.4 C 3.11 g/m*3 -2.4 C 0 km/h
1658 28-01-2011 19:41:02 -3 C 2.99 g/m*3 -3 C 0 km/h
1659 28-01-2011 19:53:02 -3.1 C 3 g/m*3 -3.1 C 0 km/h
1660 28-01-2011 20:05:02 -3.3 C 3 g/m*3 -3.3 C 0 km/h
1661 28-01-2011 20:17:02 -3.5 C 2.99 g/m*3 -3.5 C 0 km/h
1662 28-01-2011 20:29:02 -3.6 C 3.01 g/m*3 -3.6 C 0 km/h
1663 28-01-2011 20:41:02 -3.7 C 2.99 g/m*3 -3.7 C 0 km/h
1664 28-01-2011 20:53:02 -3.5 C 3.07 g/m*3 -3.5 C 0 km/h
1665 28-01-2011 21:05:01 -3.6 C 3.05 g/m*3 -3.6 C 0 km/h
1666 28-01-2011 21:18:03 -3.8 C 3.01 g/m*3 -3.8 C 0 km/h
1667 28-01-2011 21:30:03 -3.8 C 3.04 g/m*3 -3.8 C 0 km/h
1668 28-01-2011 21:42:03 -4 C 3 g/m*3 -4 C 0 km/h
1669 28-01-2011 21:54:03 -4 C 3 g/m*3 -4 C 0 km/h
1670 28-01-2011 22:06:03 -4.2 C 2.99 g/m*3 -4.2 C 0 km/h
1671 28-01-2011 22:18:03 -4.4 C 2.95 g/m*3 -4.4 C 0 km/h
1672 28-01-2011 22:30:03 -4.1 C 3.01 g/m*3 -4.1 C 0 km/h
1673 28-01-2011 22:42:03 -4.4 C 2.95 g/m*3 -4.4 C 0 km/h
1674 28-01-2011 22:54:03 -3.8 C 3.12 g/m*3 -3.8 C 0 km/h
1675 28-01-2011 23:06:03 -4.2 C 2.99 g/m*3 -4.2 C 0 km/h
Sensor: Nr:Datum:Temp:Abs-Feuchte:Windchill:Wind:
Aussen-T/F 1676 28-01-2011 23:18:03 -4.2 C 2.99 g/m*3 -4.2 C 0 km/h
1677 28-01-2011 23:30:03 -3.8 C 3.08 g/m*3 -3.8 C 0 km/h
1678 28-01-2011 23:42:03 -3.6 C 3.12 g/m*3 -3.6 C 0 km/h
1679 28-01-2011 23:54:03 -3.5 C 3.15 g/m*3 -3.5 C 0 km/h

Legende:
   Min
   Max


Maximal/Minimal-Werte vom 15.01.2011 - 28.01.2011

Sensor Min Max Avg
Temp
(Aussen-T/F)
-4.4 °C
28-01-2011  22:18:03
10.3 °C
15-01-2011  12:28:03
2.73 °C
Abs-Feuchte
(Aussen-T/F)
2.6 g/m*3
21-01-2011  07:58:02
6.81 g/m*3
17-01-2011  13:06:02
4.56 g/m*3
Windchill
(Aussen-T/F)
-4.4 C
28-01-2011  22:18:03
10.3 C
15-01-2011  12:28:03
2.73 C

Die Daten stammen von einer Davis Vantage Pro 2 Wetter-Station und werden unter Linux mit der Software wview2wettercgi und aufbereitet. Alle Angaben erfolgen ohne Gewähr für ihre Vollständigkeit oder Richtigkeit.
Kontakt: Rainer Krienke krienke@uni-koblenz.de . Meine Webseiten an der Uni Koblenz oder privat.
Version: $Revision: 0.78 $